Wetterdaten: Montag, 23.09.2019
Datum Zeit Temp. Aussen Temp. o. S. +5cm Feuchte Auss Luftdruck Regen Sonnenschein Regendauer Solar Windben Empfang
23.09.2019 00:00 18,3 C 16,7 C 16,1 C 94 % 1010,1 hPa 0,0 l/m 0 min 2 min 0 W/m 12,9 km/h (3 Bft) 97,87 %
23.09.2019 00:02 18,3 C 16,7 C 16,1 C 94 % 1010,1 hPa 0,0 l/m 0 min 0 min 0 W/m 12,9 km/h (3 Bft) 95,45 %
23.09.2019 00:04 18,2 C 16,7 C 16,7 C 94 % 1010,2 hPa 0,0 l/m 0 min 0 min 0 W/m 9,7 km/h (2 Bft) 95,74 %
23.09.2019 00:08 18,2 C 16,7 C 16,1 C 94 % 1010,1 hPa 0,0 l/m 0 min 4 min 0 W/m 12,9 km/h (3 Bft) 96,81 %
23.09.2019 00:10 18,1 C 16,1 C 16,1 C 94 % 1010,2 hPa 0,2 l/m 0 min 2 min 0 W/m 12,9 km/h (3 Bft) 97,87 %
23.09.2019 00:12 18,1 C 16,1 C 16,1 C 94 % 1010,2 hPa 0,0 l/m 0 min 2 min 0 W/m 9,7 km/h (2 Bft) 97,87 %
23.09.2019 00:14 18,0 C 16,1 C 16,1 C 94 % 1010,2 hPa 0,0 l/m 0 min 2 min 0 W/m 9,7 km/h (2 Bft) 97,83 %
23.09.2019 00:16 17,9 C 15,6 C 15,6 C 94 % 1010,3 hPa 0,2 l/m 0 min 2 min 0 W/m 16,1 km/h (3 Bft) 95,74 %
23.09.2019 00:18 17,7 C 15,6 C 15,6 C 94 % 1010,3 hPa 0,0 l/m 0 min 2 min 0 W/m 16,1 km/h (3 Bft) 93,62 %
23.09.2019 00:20 17,6 C 15,6 C 15,6 C 94 % 1010,2 hPa 0,0 l/m 0 min 2 min 0 W/m 6,4 km/h (2 Bft) 95,74 %
23.09.2019 00:22 17,6 C 15,6 C 15,6 C 94 % 1010,3 hPa 0,2 l/m 0 min 2 min 0 W/m 12,9 km/h (3 Bft) 95,74 %
23.09.2019 00:24 17,5 C 15,6 C 15,6 C 94 % 1010,4 hPa 0,0 l/m 0 min 2 min 0 W/m 22,5 km/h (4 Bft) 93,62 %
23.09.2019 00:26 17,4 C 15,6 C 15,6 C 94 % 1010,4 hPa 0,0 l/m 0 min 2 min 0 W/m 9,7 km/h (2 Bft) 91,30 %
23.09.2019 00:28 17,3 C 15,6 C 15,6 C 94 % 1010,4 hPa 0,2 l/m 0 min 2 min 0 W/m 9,7 km/h (2 Bft) 93,62 %
23.09.2019 00:30 17,3 C 15,6 C 15,6 C 94 % 1010,4 hPa 0,0 l/m 0 min 2 min 0 W/m 6,4 km/h (2 Bft) 95,74 %
23.09.2019 00:32 17,2 C 15,6 C 15,0 C 94 % 1010,4 hPa 0,0 l/m 0 min 2 min 0 W/m 6,4 km/h (2 Bft) 95,74 %
23.09.2019 00:34 17,2 C 15,0 C 15,0 C 95 % 1010,4 hPa 0,2 l/m 0 min 2 min 0 W/m 9,7 km/h (2 Bft) 95,74 %
23.09.2019 00:36 17,2 C 15,0 C 15,0 C 95 % 1010,5 hPa 0,0 l/m 0 min 2 min 0 W/m 12,9 km/h (3 Bft) 93,62 %
23.09.2019 00:38 17,1 C 15,0 C 15,0 C 95 % 1010,4 hPa 0,0 l/m 0 min 2 min 0 W/m 6,4 km/h (2 Bft) 95,65 %
23.09.2019 00:40 17,1 C 15,0 C 15,0 C 94 % 1010,6 hPa 0,2 l/m 0 min 2 min 0 W/m 6,4 km/h (2 Bft) 95,74 %
23.09.2019 00:42 17,0 C 15,0 C 15,0 C 94 % 1010,6 hPa 0,0 l/m 0 min 2 min 0 W/m 3,2 km/h (1 Bft) 93,62 %
23.09.2019 00:44 16,9 C 15,0 C 15,0 C 94 % 1010,7 hPa 0,0 l/m 0 min 2 min 0 W/m 6,4 km/h (2 Bft) 95,74 %
23.09.2019 00:46 16,9 C 15,0 C 15,0 C 94 % 1010,6 hPa 0,0 l/m 0 min 2 min 0 W/m 3,2 km/h (1 Bft) 95,74 %
23.09.2019 00:48 16,8 C 15,0 C 15,0 C 95 % 1010,6 hPa 0,2 l/m 0 min 2 min 0 W/m 6,4 km/h (2 Bft) 95,74 %
23.09.2019 00:50 16,8 C 15,0 C 15,0 C 95 % 1010,6 hPa 0,0 l/m 0 min 2 min 0 W/m 6,4 km/h (2 Bft) 95,65 %
23.09.2019 00:52 16,8 C 15,0 C 15,0 C 95 % 1010,6 hPa 0,0 l/m 0 min 2 min 0 W/m 3,2 km/h (1 Bft) 95,74 %
23.09.2019 00:54 16,8 C 15,0 C 15,0 C 95 % 1010,6 hPa 0,0 l/m 0 min 2 min 0 W/m 0,0 km/h (0 Bft) 100,00 %
23.09.2019 00:56 16,7 C 15,0 C 15,0 C 95 % 1010,6 hPa 0,2 l/m 0 min 2 min 0 W/m 3,2 km/h (1 Bft) 97,87 %
23.09.2019 00:58 16,7 C 15,0 C 15,0 C 95 % 1010,6 hPa 0,0 l/m 0 min 2 min 0 W/m 3,2 km/h (1 Bft) 97,87 %
23.09.2019 01:00 16,7 C 15,0 C 15,0 C 95 % 1010,6 hPa 0,2 l/m 0 min 2 min 0 W/m 3,2 km/h (1 Bft) 97,83 %
23.09.2019 01:02 16,7 C 15,0 C 15,0 C 95 % 1010,6 hPa 0,0 l/m 0 min 2 min 0 W/m 3,2 km/h (1 Bft) 97,87 %
23.09.2019 01:04 16,6 C 15,0 C 15,0 C 95 % 1010,6 hPa 0,2 l/m 0 min 2 min 0 W/m 3,2 km/h (1 Bft) 97,87 %
23.09.2019 01:06 16,6 C 15,0 C 15,0 C 95 % 1010,6 hPa 0,0 l/m 0 min 2 min 0 W/m 6,4 km/h (2 Bft) 97,87 %
23.09.2019 01:08 16,6 C 15,0 C 15,0 C 95 % 1010,7 hPa 0,2 l/m 0 min 2 min 0 W/m 3,2 km/h (1 Bft) 97,87 %
23.09.2019 01:10 16,6 C 15,0 C 15,0 C 95 % 1010,6 hPa 0,0 l/m 0 min 2 min 0 W/m 3,2 km/h (1 Bft) 97,87 %
23.09.2019 01:12 16,6 C 15,0 C 15,0 C 95 % 1010,7 hPa 0,0 l/m 0 min 2 min 0 W/m 3,2 km/h (1 Bft) 97,83 %
23.09.2019 01:14 16,6 C 15,0 C 15,0 C 95 % 1010,7 hPa 0,2 l/m 0 min 2 min 0 W/m 3,2 km/h (1 Bft) 100,00 %
23.09.2019 01:16 16,5 C 15,0 C 15,0 C 95 % 1010,8 hPa 0,0 l/m 0 min 2 min 0 W/m 0,0 km/h (0 Bft) 100,00 %
23.09.2019 01:18 16,5 C 15,0 C 15,0 C 95 % 1010,8 hPa 0,2 l/m 0 min 2 min 0 W/m 0,0 km/h (0 Bft) 95,74 %
23.09.2019 01:20 16,5 C 15,0 C 15,0 C 95 % 1010,8 hPa 0,0 l/m 0 min 2 min 0 W/m 0,0 km/h (0 Bft) 97,87 %
23.09.2019 01:22 16,5 C 15,0 C 15,0 C 95 % 1010,8 hPa 0,0 l/m 0 min 2 min 0 W/m 3,2 km/h (1 Bft) 97,87 %
23.09.2019 01:24 16,5 C 15,0 C 15,0 C 95 % 1010,8 hPa 0,0 l/m 0 min 2 min 0 W/m 0,0 km/h (0 Bft) 97,83 %
23.09.2019 01:26 16,5 C 15,0 C 15,0 C 96 % 1010,9 hPa 0,2 l/m 0 min 2 min 0 W/m 0,0 km/h (0 Bft) 95,74 %
23.09.2019 01:28 16,5 C 15,0 C 15,0 C 96 % 1011,0 hPa 0,0 l/m 0 min 2 min 0 W/m 6,4 km/h (2 Bft) 95,74 %
23.09.2019 01:30 16,5 C 15,0 C 15,0 C 96 % 1011,0 hPa 0,0 l/m 0 min 2 min 0 W/m 3,2 km/h (1 Bft) 95,74 %
23.09.2019 01:32 16,5 C 15,0 C 15,0 C 96 % 1011,1 hPa 0,0 l/m 0 min 2 min 0 W/m 6,4 km/h (2 Bft) 95,74 %
23.09.2019 01:34 16,4 C 15,0 C 15,0 C 96 % 1011,2 hPa 0,2 l/m 0 min 2 min 0 W/m 6,4 km/h (2 Bft) 97,87 %
23.09.2019 01:36 16,5 C 15,0 C 15,0 C 96 % 1011,1 hPa 0,0 l/m 0 min 2 min 0 W/m 3,2 km/h (1 Bft) 97,83 %
23.09.2019 01:38 16,5 C 15,0 C 15,0 C 96 % 1011,2 hPa 0,2 l/m 0 min 2 min 0 W/m 3,2 km/h (1 Bft) 97,87 %
23.09.2019 01:40 16,4 C 15,0 C 15,0 C 96 % 1011,3 hPa 0,2 l/m 0 min 2 min 0 W/m 3,2 km/h (1 Bft) 97,87 %
23.09.2019 01:42 16,4 C 15,0 C 15,0 C 96 % 1011,3 hPa 0,2 l/m 0 min 2 min 0 W/m 6,4 km/h (2 Bft) 95,74 %
23.09.2019 01:44 16,4 C 15,0 C 15,0 C 96 % 1011,2 hPa 0,2 l/m 0 min 2 min 0 W/m 3,2 km/h (1 Bft) 97,87 %
23.09.2019 01:46 16,4 C 15,0 C 15,0 C 96 % 1011,4 hPa 0,2 l/m 0 min 2 min 0 W/m 3,2 km/h (1 Bft) 97,87 %
23.09.2019 01:48 16,4 C 15,0 C 15,0 C 96 % 1011,4 hPa 0,2 l/m 0 min 2 min 0 W/m 6,4 km/h (2 Bft) 97,83 %
23.09.2019 01:50 16,4 C 15,0 C 15,0 C 96 % 1011,5 hPa 0,2 l/m 0 min 2 min 0 W/m 6,4 km/h (2 Bft) 95,74 %
23.09.2019 01:52 16,4 C 15,0 C 15,0 C 96 % 1011,4 hPa 0,0 l/m 0 min 2 min 0 W/m 3,2 km/h (1 Bft) 97,87 %
23.09.2019 01:54 16,4 C 15,0 C 15,0 C 96 % 1011,4 hPa 0,2 l/m 0 min 2 min 0 W/m 3,2 km/h (1 Bft) 97,87 %
23.09.2019 01:56 16,4 C 15,0 C 15,0 C 96 % 1011,4 hPa 0,0 l/m 0 min 2 min 0 W/m 0,0 km/h (0 Bft) 95,74 %
23.09.2019 01:58 16,4 C 15,0 C 15,0 C 96 % 1011,4 hPa 0,2 l/m 0 min 2 min 0 W/m 0,0 km/h (0 Bft) 97,87 %
23.09.2019 02:00 16,4 C 15,0 C 15,0 C 96 % 1011,4 hPa 0,0 l/m 0 min 2 min 0 W/m 0,0 km/h (0 Bft) 95,65 %
23.09.2019 02:02 16,4 C 15,0 C 15,0 C 96 % 1011,4 hPa 0,0 l/m 0 min 2 min 0 W/m 3,2 km/h (1 Bft) 97,87 %
23.09.2019 02:04 16,4 C 15,0 C 15,0 C 96 % 1011,5 hPa 0,2 l/m 0 min 2 min 0 W/m 3,2 km/h (1 Bft) 97,87 %
23.09.2019 02:06 16,4 C 15,0 C 15,0 C 96 % 1011,5 hPa 0,0 l/m 0 min 2 min 0 W/m 0,0 km/h (0 Bft) 100,00 %
23.09.2019 02:08 16,4 C 15,0 C 15,0 C 96 % 1011,5 hPa 0,0 l/m 0 min 2 min 0 W/m 0,0 km/h (0 Bft) 100,00 %
23.09.2019 02:10 16,4 C 15,0 C 15,0 C 96 % 1011,5 hPa 0,2 l/m 0 min 2 min 0 W/m 0,0 km/h (0 Bft) 100,00 %
23.09.2019 02:12 16,4 C 15,0 C 15,0 C 96 % 1011,5 hPa 0,0 l/m 0 min 2 min 0 W/m 0,0 km/h (0 Bft) 100,00 %
23.09.2019 02:14 16,4 C 15,0 C 15,0 C 96 % 1011,6 hPa 0,0 l/m 0 min 2 min 0 W/m 3,2 km/h (1 Bft) 100,00 %
23.09.2019 02:16 16,4 C 15,0 C 15,0 C 96 % 1011,6 hPa 0,2 l/m 0 min 2 min 0 W/m 3,2 km/h (1 Bft) 100,00 %
23.09.2019 02:18 16,4 C 15,0 C 15,0 C 96 % 1011,6 hPa 0,0 l/m 0 min 2 min 0 W/m 3,2 km/h (1 Bft) 100,00 %
23.09.2019 02:20 16,4 C 15,0 C 15,0 C 96 % 1011,7 hPa 0,0 l/m 0 min 2 min 0 W/m 3,2 km/h (1 Bft) 100,00 %
23.09.2019 02:22 16,4 C 15,0 C 15,0 C 96 % 1011,7 hPa 0,0 l/m 0 min 2 min 0 W/m 3,2 km/h (1 Bft) 100,00 %
23.09.2019 02:24 16,3 C 15,0 C 15,0 C 96 % 1011,7 hPa 0,0 l/m 0 min 2 min 0 W/m 3,2 km/h (1 Bft) 100,00 %
23.09.2019 02:26 16,4 C 15,0 C 15,0 C 96 % 1011,7 hPa 0,2 l/m 0 min 2 min 0 W/m 3,2 km/h (1 Bft) 100,00 %
23.09.2019 02:28 16,3 C 15,0 C 15,0 C 96 % 1011,6 hPa 0,0 l/m 0 min 2 min 0 W/m 3,2 km/h (1 Bft) 100,00 %
23.09.2019 02:30 16,3 C 15,0 C 15,0 C 96 % 1011,7 hPa 0,0 l/m 0 min 0 min 0 W/m 3,2 km/h (1 Bft) 100,00 %
23.09.2019 02:32 16,3 C 15,0 C 15,0 C 96 % 1011,6 hPa 0,0 l/m 0 min 0 min 0 W/m 3,2 km/h (1 Bft) 100,00 %
23.09.2019 02:34 16,3 C 15,0 C 15,0 C 96 % 1011,5 hPa 0,0 l/m 0 min 0 min 0 W/m 3,2 km/h (1 Bft) 97,83 %
23.09.2019 02:36 16,3 C 15,0 C 15,0 C 96 % 1011,5 hPa 0,0 l/m 0 min 0 min 0 W/m 0,0 km/h (0 Bft) 100,00 %
23.09.2019 02:38 16,3 C 15,0 C 15,0 C 96 % 1011,5 hPa 0,0 l/m 0 min 2 min 0 W/m 0,0 km/h (0 Bft) 100,00 %
23.09.2019 02:40 16,3 C 15,0 C 15,0 C 97 % 1011,6 hPa 0,0 l/m 0 min 2 min 0 W/m 0,0 km/h (0 Bft) 100,00 %
23.09.2019 02:42 16,3 C 15,0 C 15,0 C 97 % 1011,5 hPa 0,0 l/m 0 min 2 min 0 W/m 0,0 km/h (0 Bft) 97,87 %
23.09.2019 02:44 16,3 C 15,0 C 15,0 C 97 % 1011,6 hPa 0,0 l/m 0 min 2 min 0 W/m 3,2 km/h (1 Bft) 97,87 %
23.09.2019 02:46 16,3 C 15,0 C 15,0 C 97 % 1011,6 hPa 0,0 l/m 0 min 2 min 0 W/m 0,0 km/h (0 Bft) 97,83 %
23.09.2019 02:48 16,3 C 15,0 C 15,0 C 97 % 1011,5 hPa 0,0 l/m 0 min 2 min 0 W/m 0,0 km/h (0 Bft) 100,00 %
23.09.2019 02:50 16,3 C 15,0 C 15,0 C 97 % 1011,5 hPa 0,0 l/m 0 min 2 min 0 W/m 0,0 km/h (0 Bft) 97,87 %
23.09.2019 02:52 16,3 C 15,0 C 15,0 C 97 % 1011,5 hPa 0,0 l/m 0 min 2 min 0 W/m 0,0 km/h (0 Bft) 97,87 %
23.09.2019 02:54 16,3 C 15,0 C 15,0 C 97 % 1011,5 hPa 0,0 l/m 0 min 0 min 0 W/m 0,0 km/h (0 Bft) 97,87 %
23.09.2019 02:56 16,2 C 15,0 C 15,0 C 97 % 1011,5 hPa 0,0 l/m 0 min 0 min 0 W/m 0,0 km/h (0 Bft) 100,00 %
23.09.2019 02:58 16,2 C 15,0 C 15,0 C 97 % 1011,4 hPa 0,0 l/m 0 min 0 min 0 W/m 0,0 km/h (0 Bft) 95,65 %
23.09.2019 03:00 16,2 C 15,0 C 15,0 C 97 % 1011,4 hPa 0,0 l/m 0 min 0 min 0 W/m 0,0 km/h (0 Bft) 97,87 %
23.09.2019 03:02 16,2 C 15,0 C 15,0 C 97 % 1011,4 hPa 0,0 l/m 0 min 0 min 0 W/m 0,0 km/h (0 Bft) 93,62 %
23.09.2019 03:04 16,2 C 15,0 C 15,0 C 97 % 1011,4 hPa 0,0 l/m 0 min 2 min 0 W/m 0,0 km/h (0 Bft) 97,87 %
23.09.2019 03:06 16,2 C 15,0 C 15,0 C 97 % 1011,4 hPa 0,0 l/m 0 min 2 min 0 W/m 0,0 km/h (0 Bft) 95,74 %
23.09.2019 03:08 16,2 C 15,0 C 15,0 C 97 % 1011,5 hPa 0,0 l/m 0 min 2 min 0 W/m 0,0 km/h (0 Bft) 97,87 %
23.09.2019 03:10 16,2 C 15,0 C 14,4 C 97 % 1011,5 hPa 0,0 l/m 0 min 2 min 0 W/m 0,0 km/h (0 Bft) 97,83 %
23.09.2019 03:12 16,2 C 15,0 C 15,0 C 97 % 1011,6 hPa 0,0 l/m 0 min 2 min 0 W/m 0,0 km/h (0 Bft) 97,87 %
23.09.2019 03:14 16,1 C 15,0 C 14,4 C 97 % 1011,7 hPa 0,0 l/m 0 min 0 min 0 W/m 0,0 km/h (0 Bft) 97,87 %
23.09.2019 03:16 16,1 C 15,0 C 14,4 C 97 % 1011,7 hPa 0,0 l/m 0 min 0 min 0 W/m 3,2 km/h (1 Bft) 97,87 %
23.09.2019 03:18 16,1 C 15,0 C 14,4 C 96 % 1011,7 hPa 0,0 l/m 0 min 0 min 0 W/m 0,0 km/h (0 Bft) 97,87 %
23.09.2019 03:20 16,1 C 15,0 C 14,4 C 97 % 1011,5 hPa 0,0 l/m 0 min 0 min 0 W/m 0,0 km/h (0 Bft) 95,74 %
23.09.2019 03:22 16,1 C 15,0 C 14,4 C 97 % 1011,6 hPa 0,0 l/m 0 min 0 min 0 W/m 0,0 km/h (0 Bft) 95,65 %
23.09.2019 03:24 16,1 C 15,0 C 14,4 C 97 % 1011,7 hPa 0,0 l/m 0 min 0 min 0 W/m 0,0 km/h (0 Bft) 97,87 %
23.09.2019 03:26 16,1 C 15,0 C 14,4 C 97 % 1011,8 hPa 0,0 l/m 0 min 0 min 0 W/m 0,0 km/h (0 Bft) 97,87 %
23.09.2019 03:28 16,1 C 15,0 C 14,4 C 97 % 1011,8 hPa 0,0 l/m 0 min 2 min 0 W/m 0,0 km/h (0 Bft) 97,87 %
23.09.2019 03:30 16,1 C 15,0 C 14,4 C 97 % 1011,9 hPa 0,0 l/m 0 min 2 min 0 W/m 0,0 km/h (0 Bft) 97,87 %
23.09.2019 03:32 16,1 C 15,0 C 14,4 C 97 % 1011,9 hPa 0,2 l/m 0 min 2 min 0 W/m 0,0 km/h (0 Bft) 97,87 %
23.09.2019 03:34 16,1 C 15,0 C 14,4 C 97 % 1011,9 hPa 0,0 l/m 0 min 2 min 0 W/m 0,0 km/h (0 Bft) 97,83 %
23.09.2019 03:36 16,1 C 15,0 C 14,4 C 97 % 1011,9 hPa 0,0 l/m 0 min 2 min 0 W/m 0,0 km/h (0 Bft) 95,74 %
23.09.2019 03:38 16,0 C 15,0 C 14,4 C 97 % 1011,7 hPa 0,0 l/m 0 min 2 min 0 W/m 0,0 km/h (0 Bft) 97,87 %
23.09.2019 03:40 16,0 C 15,0 C 14,4 C 97 % 1011,8 hPa 0,0 l/m 0 min 2 min 0 W/m 0,0 km/h (0 Bft) 95,74 %
23.09.2019 03:42 16,0 C 15,0 C 14,4 C 97 % 1011,9 hPa 0,0 l/m 0 min 2 min 0 W/m 0,0 km/h (0 Bft) 95,74 %
23.09.2019 03:44 16,0 C 15,0 C 14,4 C 97 % 1011,9 hPa 0,0 l/m 0 min 2 min 0 W/m 0,0 km/h (0 Bft) 95,74 %
23.09.2019 03:46 16,0 C 15,0 C 15,0 C 97 % 1011,9 hPa 0,0 l/m 0 min 2 min 0 W/m 0,0 km/h (0 Bft) 95,65 %
23.09.2019 03:48 16,0 C 15,0 C 14,4 C 97 % 1012,0 hPa 0,0 l/m 0 min 2 min 0 W/m 3,2 km/h (1 Bft) 93,62 %
23.09.2019 03:50 16,0 C 15,0 C 14,4 C 97 % 1012,1 hPa 0,0 l/m 0 min 2 min 0 W/m 6,4 km/h (2 Bft) 97,87 %
23.09.2019 03:52 16,0 C 14,4 C 14,4 C 97 % 1012,1 hPa 0,0 l/m 0 min 2 min 0 W/m 3,2 km/h (1 Bft) 95,74 %
23.09.2019 03:54 16,0 C 14,4 C 14,4 C 97 % 1012,2 hPa 0,0 l/m 0 min 2 min 0 W/m 6,4 km/h (2 Bft) 95,74 %
23.09.2019 03:56 16,0 C 14,4 C 14,4 C 97 % 1012,2 hPa 0,0 l/m 0 min 2 min 0 W/m 9,7 km/h (2 Bft) 97,83 %
23.09.2019 03:58 16,0 C 14,4 C 14,4 C 97 % 1012,4 hPa 0,0 l/m 0 min 2 min 0 W/m 9,7 km/h (2 Bft) 95,74 %
23.09.2019 04:00 16,0 C 14,4 C 14,4 C 97 % 1012,3 hPa 0,0 l/m 0 min 2 min 0 W/m 6,4 km/h (2 Bft) 95,74 %
23.09.2019 04:02 16,0 C 14,4 C 14,4 C 97 % 1012,4 hPa 0,0 l/m 0 min 2 min 0 W/m 9,7 km/h (2 Bft) 100,00 %
23.09.2019 04:04 16,0 C 14,4 C 14,4 C 97 % 1012,4 hPa 0,0 l/m 0 min 2 min 0 W/m 6,4 km/h (2 Bft) 93,62 %
23.09.2019 04:06 16,0 C 14,4 C 14,4 C 97 % 1012,5 hPa 0,0 l/m 0 min 2 min 0 W/m 12,9 km/h (3 Bft) 95,74 %
23.09.2019 04:08 15,9 C 14,4 C 14,4 C 97 % 1012,4 hPa 0,0 l/m 0 min 2 min 0 W/m 12,9 km/h (3 Bft) 95,65 %
23.09.2019 04:10 15,9 C 14,4 C 14,4 C 97 % 1012,4 hPa 0,0 l/m 0 min 2 min 0 W/m 6,4 km/h (2 Bft) 95,74 %
23.09.2019 04:12 15,9 C 14,4 C 14,4 C 97 % 1012,4 hPa 0,0 l/m 0 min 2 min 0 W/m 9,7 km/h (2 Bft) 95,74 %
23.09.2019 04:14 15,9 C 14,4 C 14,4 C 97 % 1012,5 hPa 0,0 l/m 0 min 0 min 0 W/m 3,2 km/h (1 Bft) 95,74 %
23.09.2019 04:16 15,9 C 14,4 C 14,4 C 97 % 1012,5 hPa 0,2 l/m 0 min 2 min 0 W/m 6,4 km/h (2 Bft) 95,74 %
23.09.2019 04:18 15,8 C 14,4 C 14,4 C 97 % 1012,5 hPa 0,0 l/m 0 min 2 min 0 W/m 6,4 km/h (2 Bft) 95,74 %
23.09.2019 04:20 15,8 C 14,4 C 14,4 C 97 % 1012,5 hPa 0,0 l/m 0 min 2 min 0 W/m 0,0 km/h (0 Bft) 95,65 %
23.09.2019 04:22 15,8 C 14,4 C 14,4 C 97 % 1012,5 hPa 0,0 l/m 0 min 0 min 0 W/m 3,2 km/h (1 Bft) 95,74 %
23.09.2019 04:24 15,8 C 14,4 C 14,4 C 97 % 1012,5 hPa 0,0 l/m 0 min 0 min 0 W/m 6,4 km/h (2 Bft) 95,74 %
23.09.2019 04:26 15,8 C 14,4 C 14,4 C 97 % 1012,5 hPa 0,0 l/m 0 min 2 min 0 W/m 3,2 km/h (1 Bft) 93,62 %
23.09.2019 04:28 15,8 C 14,4 C 14,4 C 97 % 1012,5 hPa 0,0 l/m 0 min 2 min 0 W/m 3,2 km/h (1 Bft) 95,74 %
23.09.2019 04:30 15,8 C 14,4 C 14,4 C 97 % 1012,5 hPa 0,0 l/m 0 min 2 min 0 W/m 0,0 km/h (0 Bft) 93,62 %
23.09.2019 04:32 15,8 C 14,4 C 14,4 C 97 % 1012,5 hPa 0,0 l/m 0 min 2 min 0 W/m 0,0 km/h (0 Bft) 95,65 %
23.09.2019 04:34 15,7 C 14,4 C 14,4 C 97 % 1012,5 hPa 0,0 l/m 0 min 2 min 0 W/m 0,0 km/h (0 Bft) 95,74 %
23.09.2019 04:36 15,7 C 14,4 C 14,4 C 97 % 1012,5 hPa 0,0 l/m 0 min 2 min 0 W/m 0,0 km/h (0 Bft) 97,87 %
23.09.2019 04:38 15,7 C 14,4 C 14,4 C 97 % 1012,5 hPa 0,0 l/m 0 min 2 min 0 W/m 6,4 km/h (2 Bft) 97,87 %
23.09.2019 04:40 15,7 C 14,4 C 14,4 C 97 % 1012,4 hPa 0,0 l/m 0 min 2 min 0 W/m 0,0 km/h (0 Bft) 100,00 %
23.09.2019 04:42 15,7 C 14,4 C 14,4 C 97 % 1012,4 hPa 0,0 l/m 0 min 2 min 0 W/m 3,2 km/h (1 Bft) 97,87 %
23.09.2019 04:44 15,7 C 14,4 C 14,4 C 97 % 1012,4 hPa 0,0 l/m 0 min 2 min 0 W/m 3,2 km/h (1 Bft) 97,83 %
23.09.2019 04:46 15,7 C 14,4 C 14,4 C 97 % 1012,5 hPa 0,0 l/m 0 min 2 min 0 W/m 0,0 km/h (0 Bft) 100,00 %
23.09.2019 04:48 15,7 C 14,4 C 14,4 C 97 % 1012,5 hPa 0,0 l/m 0 min 2 min 0 W/m 3,2 km/h (1 Bft) 97,87 %
23.09.2019 04:50 15,7 C 14,4 C 14,4 C 97 % 1012,5 hPa 0,0 l/m 0 min 2 min 0 W/m 0,0 km/h (0 Bft) 97,87 %
23.09.2019 04:52 15,7 C 14,4 C 14,4 C 97 % 1012,6 hPa 0,0 l/m 0 min 2 min 0 W/m 6,4 km/h (2 Bft) 97,87 %
23.09.2019 04:54 15,7 C 14,4 C 14,4 C 97 % 1012,5 hPa 0,0 l/m 0 min 2 min 0 W/m 3,2 km/h (1 Bft) 100,00 %
23.09.2019 04:56 15,7 C 14,4 C 14,4 C 97 % 1012,5 hPa 0,0 l/m 0 min 2 min 0 W/m 0,0 km/h (0 Bft) 97,83 %
23.09.2019 04:58 15,7 C 14,4 C 14,4 C 97 % 1012,5 hPa 0,0 l/m 0 min 2 min 0 W/m 0,0 km/h (0 Bft) 100,00 %
23.09.2019 05:00 15,7 C 14,4 C 14,4 C 97 % 1012,5 hPa 0,0 l/m 0 min 2 min 0 W/m 3,2 km/h (1 Bft) 100,00 %
23.09.2019 05:02 15,7 C 14,4 C 14,4 C 97 % 1012,5 hPa 0,2 l/m 0 min 2 min 0 W/m 0,0 km/h (0 Bft) 100,00 %
23.09.2019 05:04 15,7 C 14,4 C 13,9 C 97 % 1012,5 hPa 0,0 l/m 0 min 2 min 0 W/m 3,2 km/h (1 Bft) 100,00 %
23.09.2019 05:06 15,7 C 14,4 C 13,9 C 97 % 1012,5 hPa 0,0 l/m 0 min 2 min 0 W/m 3,2 km/h (1 Bft) 100,00 %
23.09.2019 05:08 15,6 C 14,4 C 13,9 C 97 % 1012,5 hPa 0,0 l/m 0 min 2 min 0 W/m 3,2 km/h (1 Bft) 100,00 %
23.09.2019 05:10 15,6 C 14,4 C 13,9 C 97 % 1012,5 hPa 0,0 l/m 0 min 2 min 0 W/m 0,0 km/h (0 Bft) 100,00 %
23.09.2019 05:12 15,6 C 14,4 C 13,9 C 97 % 1012,5 hPa 0,0 l/m 0 min 2 min 0 W/m 3,2 km/h (1 Bft) 100,00 %
23.09.2019 05:14 15,6 C 14,4 C 13,9 C 97 % 1012,5 hPa 0,0 l/m 0 min 2 min 0 W/m 3,2 km/h (1 Bft) 100,00 %
23.09.2019 05:16 15,6 C 14,4 C 13,9 C 97 % 1012,5 hPa 0,0 l/m 0 min 2 min 0 W/m 3,2 km/h (1 Bft) 100,00 %
23.09.2019 05:18 15,6 C 14,4 C 13,9 C 97 % 1012,5 hPa 0,0 l/m 0 min 2 min 0 W/m 0,0 km/h (0 Bft) 100,00 %
23.09.2019 05:20 15,6 C 14,4 C 13,9 C 97 % 1012,5 hPa 0,2 l/m 0 min 2 min 0 W/m 0,0 km/h (0 Bft) 100,00 %
23.09.2019 05:22 15,5 C 14,4 C 13,9 C 97 % 1012,5 hPa 0,0 l/m 0 min 2 min 0 W/m 0,0 km/h (0 Bft) 100,00 %
23.09.2019 05:24 15,5 C 13,9 C 13,9 C 97 % 1012,5 hPa 0,0 l/m 0 min 2 min 0 W/m 3,2 km/h (1 Bft) 97,87 %
23.09.2019 05:26 15,5 C 14,4 C 13,9 C 97 % 1012,5 hPa 0,2 l/m 0 min 2 min 0 W/m 0,0 km/h (0 Bft) 100,00 %
23.09.2019 05:28 15,5 C 14,4 C 13,9 C 97 % 1012,5 hPa 0,0 l/m 0 min 2 min 0 W/m 3,2 km/h (1 Bft) 100,00 %
23.09.2019 05:30 15,5 C 13,9 C 13,9 C 97 % 1012,6 hPa 0,0 l/m 0 min 2 min 0 W/m 6,4 km/h (2 Bft) 97,83 %
23.09.2019 05:32 15,4 C 14,4 C 13,9 C 97 % 1012,5 hPa 0,0 l/m 0 min 2 min 0 W/m 0,0 km/h (0 Bft) 97,87 %
23.09.2019 05:34 15,4 C 13,9 C 13,9 C 97 % 1012,5 hPa 0,0 l/m 0 min 2 min 0 W/m 0,0 km/h (0 Bft) 100,00 %
23.09.2019 05:36 15,4 C 13,9 C 13,9 C 97 % 1012,4 hPa 0,0 l/m 0 min 2 min 0 W/m 0,0 km/h (0 Bft) 100,00 %
23.09.2019 05:38 15,4 C 13,9 C 13,9 C 97 % 1012,5 hPa 0,0 l/m 0 min 2 min 0 W/m 0,0 km/h (0 Bft) 100,00 %
23.09.2019 05:40 15,4 C 13,9 C 13,9 C 97 % 1012,4 hPa 0,2 l/m 0 min 2 min 0 W/m 0,0 km/h (0 Bft) 100,00 %
23.09.2019 05:42 15,4 C 13,9 C 13,9 C 97 % 1012,5 hPa 0,0 l/m 0 min 2 min 0 W/m 0,0 km/h (0 Bft) 100,00 %
23.09.2019 05:44 15,4 C 13,9 C 13,9 C 97 % 1012,4 hPa 0,0 l/m 0 min 2 min 0 W/m 0,0 km/h (0 Bft) 100,00 %
23.09.2019 05:46 15,4 C 13,9 C 13,9 C 97 % 1012,4 hPa 0,0 l/m 0 min 2 min 0 W/m 0,0 km/h (0 Bft) 100,00 %
23.09.2019 05:48 15,4 C 13,9 C 13,9 C 97 % 1012,4 hPa 0,2 l/m 0 min 2 min 0 W/m 0,0 km/h (0 Bft) 97,87 %
23.09.2019 05:50 15,4 C 13,9 C 13,9 C 97 % 1012,4 hPa 0,0 l/m 0 min 2 min 0 W/m 3,2 km/h (1 Bft) 100,00 %
23.09.2019 05:52 15,3 C 13,9 C 13,9 C 97 % 1012,3 hPa 0,0 l/m 0 min 2 min 0 W/m 0,0 km/h (0 Bft) 100,00 %
23.09.2019 05:54 15,3 C 13,9 C 13,9 C 97 % 1012,4 hPa 0,0 l/m 0 min 2 min 0 W/m 0,0 km/h (0 Bft) 97,83 %
23.09.2019 05:56 15,3 C 13,9 C 13,9 C 97 % 1012,4 hPa 0,0 l/m 0 min 2 min 0 W/m 0,0 km/h (0 Bft) 100,00 %
23.09.2019 05:58 15,3 C 13,9 C 13,9 C 97 % 1012,4 hPa 0,0 l/m 0 min 2 min 0 W/m 3,2 km/h (1 Bft) 95,74 %
23.09.2019 06:00 15,3 C 13,9 C 13,9 C 97 % 1012,3 hPa 0,0 l/m 0 min 2 min 0 W/m 6,4 km/h (2 Bft) 100,00 %
23.09.2019 06:02 15,3 C 13,9 C 13,9 C 97 % 1012,4 hPa 0,2 l/m 0 min 2 min 0 W/m 3,2 km/h (1 Bft) 97,87 %
23.09.2019 06:04 15,3 C 13,9 C 13,9 C 97 % 1012,4 hPa 0,0 l/m 0 min 2 min 0 W/m 3,2 km/h (1 Bft) 97,87 %
23.09.2019 06:08 15,3 C 13,9 C 13,9 C 97 % 1012,5 hPa 0,0 l/m 0 min 4 min 0 W/m 3,2 km/h (1 Bft) 96,77 %
23.09.2019 06:10 15,2 C 13,9 C 13,9 C 97 % 1012,5 hPa 0,0 l/m 0 min 2 min 0 W/m 6,4 km/h (2 Bft) 95,74 %
23.09.2019 06:12 15,2 C 13,9 C 13,9 C 97 % 1012,5 hPa 0,0 l/m 0 min 2 min 0 W/m 9,7 km/h (2 Bft) 95,74 %
23.09.2019 06:14 15,2 C 13,9 C 13,9 C 97 % 1012,5 hPa 0,0 l/m 0 min 2 min 0 W/m 0,0 km/h (0 Bft) 91,49 %
23.09.2019 06:16 15,2 C 13,9 C 13,9 C 97 % 1012,5 hPa 0,2 l/m 0 min 2 min 0 W/m 0,0 km/h (0 Bft) 97,87 %
23.09.2019 06:18 15,2 C 13,9 C 13,9 C 97 % 1012,5 hPa 0,0 l/m 0 min 2 min 0 W/m 0,0 km/h (0 Bft) 97,83 %
23.09.2019 06:20 15,2 C 13,9 C 13,9 C 97 % 1012,5 hPa 0,0 l/m 0 min 2 min 0 W/m 0,0 km/h (0 Bft) 97,87 %
23.09.2019 06:22 15,2 C 13,9 C 13,9 C 97 % 1012,5 hPa 0,0 l/m 0 min 2 min 0 W/m 0,0 km/h (0 Bft) 97,87 %
23.09.2019 06:24 15,2 C 13,9 C 13,9 C 97 % 1012,5 hPa 0,0 l/m 0 min 2 min 0 W/m 0,0 km/h (0 Bft) 97,87 %
23.09.2019 06:26 15,2 C 13,9 C 13,9 C 97 % 1012,5 hPa 0,0 l/m 0 min 2 min 0 W/m 0,0 km/h (0 Bft) 97,87 %
23.09.2019 06:28 15,2 C 13,9 C 13,9 C 97 % 1012,5 hPa 0,0 l/m 0 min 2 min 0 W/m 3,2 km/h (1 Bft) 97,87 %
23.09.2019 06:30 15,2 C 13,9 C 13,9 C 97 % 1012,5 hPa 0,2 l/m 0 min 2 min 0 W/m 0,0 km/h (0 Bft) 97,83 %
23.09.2019 06:32 15,2 C 13,9 C 13,9 C 97 % 1012,6 hPa 0,0 l/m 0 min 2 min 0 W/m 0,0 km/h (0 Bft) 97,87 %
23.09.2019 06:34 15,1 C 13,9 C 13,9 C 97 % 1012,6 hPa 0,2 l/m 0 min 2 min 0 W/m 3,2 km/h (1 Bft) 97,87 %
23.09.2019 06:36 15,2 C 13,9 C 13,9 C 97 % 1012,6 hPa 0,0 l/m 0 min 2 min 0 W/m 12,9 km/h (3 Bft) 95,74 %
23.09.2019 06:38 15,1 C 13,9 C 13,9 C 97 % 1012,6 hPa 0,0 l/m 0 min 2 min 0 W/m 6,4 km/h (2 Bft) 93,62 %
23.09.2019 06:40 15,1 C 13,9 C 13,9 C 97 % 1012,5 hPa 0,0 l/m 0 min 2 min 0 W/m 0,0 km/h (0 Bft) 95,65 %
23.09.2019 06:42 15,1 C 13,9 C 13,9 C 97 % 1012,5 hPa 0,2 l/m 0 min 2 min 0 W/m 0,0 km/h (0 Bft) 93,62 %
23.09.2019 06:44 15,1 C 13,9 C 13,9 C 97 % 1012,5 hPa 0,0 l/m 0 min 2 min 0 W/m 0,0 km/h (0 Bft) 97,30 %
23.09.2019 06:46 15,1 C 13,9 C 13,9 C 97 % 1012,5 hPa 0,0 l/m 0 min 2 min 0 W/m 0,0 km/h (0 Bft) 92,98 %
23.09.2019 06:48 15,1 C 13,9 C 13,9 C 97 % 1012,5 hPa 0,0 l/m 0 min 2 min 0 W/m 0,0 km/h (0 Bft) 93,62 %
23.09.2019 06:50 15,1 C 13,9 C 13,9 C 97 % 1012,5 hPa 0,0 l/m 0 min 2 min 0 W/m 0,0 km/h (0 Bft) 97,87 %
23.09.2019 06:52 15,1 C 13,9 C 13,9 C 97 % 1012,5 hPa 0,0 l/m 0 min 2 min 0 W/m 0,0 km/h (0 Bft) 97,83 %
23.09.2019 06:54 15,1 C 13,9 C 13,9 C 97 % 1012,6 hPa 0,0 l/m 0 min 2 min 0 W/m 0,0 km/h (0 Bft) 97,87 %
23.09.2019 06:56 15,1 C 13,9 C 13,9 C 97 % 1012,6 hPa 0,2 l/m 0 min 2 min 0 W/m 3,2 km/h (1 Bft) 93,62 %
23.09.2019 06:58 15,1 C 13,9 C 13,9 C 97 % 1012,6 hPa 0,0 l/m 0 min 2 min 0 W/m 0,0 km/h (0 Bft) 97,87 %
23.09.2019 07:00 15,1 C 13,9 C 13,9 C 97 % 1012,7 hPa 0,0 l/m 0 min 2 min 0 W/m 0,0 km/h (0 Bft) 93,62 %
23.09.2019 07:02 15,1 C 13,9 C 13,9 C 97 % 1012,7 hPa 0,0 l/m 0 min 2 min 0 W/m 3,2 km/h (1 Bft) 91,49 %
23.09.2019 07:04 15,1 C 13,9 C 13,9 C 97 % 1012,7 hPa 0,0 l/m 0 min 2 min 0 W/m 0,0 km/h (0 Bft) 95,65 %
23.09.2019 07:06 15,1 C 13,9 C 13,9 C 97 % 1012,7 hPa 0,2 l/m 0 min 2 min 0 W/m 0,0 km/h (0 Bft) 95,74 %
23.09.2019 07:08 15,1 C 13,9 C 13,9 C 97 % 1012,7 hPa 0,0 l/m 0 min 2 min 0 W/m 3,2 km/h (1 Bft) 95,74 %
23.09.2019 07:10 15,1 C 13,9 C 13,9 C 97 % 1012,7 hPa 0,0 l/m 0 min 2 min 0 W/m 6,4 km/h (2 Bft) 95,74 %
23.09.2019 07:12 15,1 C 13,9 C 13,9 C 97 % 1012,7 hPa 0,0 l/m 0 min 2 min 0 W/m 3,2 km/h (1 Bft) 95,74 %
23.09.2019 07:14 15,1 C 13,9 C 13,3 C 97 % 1012,8 hPa 0,0 l/m 0 min 2 min 0 W/m 3,2 km/h (1 Bft) 95,74 %
23.09.2019 07:16 15,1 C 13,9 C 13,9 C 97 % 1012,9 hPa 0,2 l/m 0 min 2 min 0 W/m 0,0 km/h (0 Bft) 95,65 %
23.09.2019 07:18 15,1 C 13,9 C 13,9 C 97 % 1012,9 hPa 0,0 l/m 0 min 2 min 0 W/m 0,0 km/h (0 Bft) 97,87 %
23.09.2019 07:20 15,1 C 13,9 C 13,3 C 97 % 1013,0 hPa 0,0 l/m 0 min 2 min 0 W/m 0,0 km/h (0 Bft) 97,87 %
23.09.2019 07:22 15,1 C 13,9 C 13,3 C 97 % 1013,0 hPa 0,0 l/m 0 min 2 min 0 W/m 0,0 km/h (0 Bft) 95,74 %
23.09.2019 07:24 15,1 C 13,9 C 13,9 C 97 % 1013,0 hPa 0,0 l/m 0 min 2 min 0 W/m 0,0 km/h (0 Bft) 97,87 %
23.09.2019 07:26 15,0 C 13,9 C 13,9 C 97 % 1013,0 hPa 0,0 l/m 0 min 2 min 0 W/m 0,0 km/h (0 Bft) 95,74 %
23.09.2019 07:28 15,1 C 13,9 C 13,3 C 97 % 1013,0 hPa 0,0 l/m 0 min 2 min 0 W/m 3,2 km/h (1 Bft) 97,83 %
23.09.2019 07:30 15,0 C 13,9 C 13,3 C 97 % 1013,0 hPa 0,2 l/m 0 min 2 min 0 W/m 3,2 km/h (1 Bft) 97,87 %
23.09.2019 07:32 15,0 C 13,9 C 13,3 C 97 % 1013,1 hPa 0,0 l/m 0 min 2 min 0 W/m 3,2 km/h (1 Bft) 95,74 %
23.09.2019 07:34 15,0 C 13,9 C 13,9 C 97 % 1013,2 hPa 0,0 l/m 0 min 2 min 0 W/m 6,4 km/h (2 Bft) 97,87 %
23.09.2019 07:36 15,0 C 13,9 C 13,9 C 97 % 1013,3 hPa 0,0 l/m 0 min 2 min 0 W/m 3,2 km/h (1 Bft) 97,87 %
23.09.2019 07:38 15,0 C 13,9 C 13,9 C 97 % 1013,2 hPa 0,0 l/m 0 min 2 min 4 W/m 3,2 km/h (1 Bft) 95,74 %
23.09.2019 07:40 15,0 C 13,9 C 13,3 C 97 % 1013,1 hPa 0,2 l/m 0 min 2 min 8 W/m 6,4 km/h (2 Bft) 97,83 %
23.09.2019 07:42 15,0 C 13,9 C 13,3 C 97 % 1013,0 hPa 0,0 l/m 0 min 2 min 12 W/m 3,2 km/h (1 Bft) 97,87 %
23.09.2019 07:44 15,0 C 13,9 C 13,3 C 97 % 1013,1 hPa 0,0 l/m 0 min 2 min 14 W/m 0,0 km/h (0 Bft) 97,87 %
23.09.2019 07:46 15,0 C 13,9 C 13,3 C 97 % 1013,1 hPa 0,0 l/m 0 min 2 min 16 W/m 3,2 km/h (1 Bft) 97,87 %
23.09.2019 07:48 15,0 C 13,9 C 13,3 C 97 % 1013,2 hPa 0,0 l/m 0 min 0 min 18 W/m 3,2 km/h (1 Bft) 97,87 %
23.09.2019 07:50 14,9 C 13,9 C 13,3 C 98 % 1013,2 hPa 0,0 l/m 0 min 0 min 20 W/m 6,4 km/h (2 Bft) 97,83 %
23.09.2019 07:52 14,9 C 13,9 C 13,3 C 98 % 1013,3 hPa 0,0 l/m 0 min 0 min 21 W/m 6,4 km/h (2 Bft) 97,87 %
23.09.2019 07:54 14,9 C 13,9 C 13,3 C 98 % 1013,2 hPa 0,0 l/m 0 min 0 min 23 W/m 6,4 km/h (2 Bft) 97,87 %
23.09.2019 07:56 14,9 C 13,9 C 13,3 C 98 % 1013,3 hPa 0,0 l/m 0 min 0 min 26 W/m 3,2 km/h (1 Bft) 97,87 %
23.09.2019 07:58 14,9 C 13,9 C 13,3 C 98 % 1013,4 hPa 0,0 l/m 0 min 0 min 29 W/m 6,4 km/h (2 Bft) 95,74 %
23.09.2019 08:00 14,9 C 13,9 C 13,3 C 98 % 1013,3 hPa 0,0 l/m 0 min 0 min 33 W/m 3,2 km/h (1 Bft) 100,00 %
23.09.2019 08:02 14,9 C 13,9 C 13,3 C 98 % 1013,3 hPa 0,0 l/m 0 min 0 min 37 W/m 3,2 km/h (1 Bft) 97,83 %
23.09.2019 08:04 14,9 C 13,9 C 13,9 C 98 % 1013,3 hPa 0,0 l/m 0 min 0 min 40 W/m 3,2 km/h (1 Bft) 100,00 %
23.09.2019 08:06 14,9 C 13,9 C 13,3 C 98 % 1013,3 hPa 0,0 l/m 0 min 0 min 40 W/m 6,4 km/h (2 Bft) 97,87 %
23.09.2019 08:08 14,8 C 13,9 C 13,9 C 98 % 1013,3 hPa 0,0 l/m 0 min 0 min 41 W/m 0,0 km/h (0 Bft) 97,87 %
23.09.2019 08:10 14,8 C 13,9 C 13,3 C 98 % 1013,3 hPa 0,0 l/m 0 min 0 min 39 W/m 3,2 km/h (1 Bft) 95,74 %
23.09.2019 08:12 14,8 C 13,9 C 13,3 C 98 % 1013,4 hPa 0,0 l/m 0 min 0 min 37 W/m 3,2 km/h (1 Bft) 100,00 %
23.09.2019 08:14 14,8 C 13,9 C 13,3 C 98 % 1013,4 hPa 0,0 l/m 0 min 0 min 34 W/m 6,4 km/h (2 Bft) 100,00 %
23.09.2019 08:16 14,8 C 13,9 C 13,3 C 98 % 1013,4 hPa 0,0 l/m 0 min 0 min 32 W/m 3,2 km/h (1 Bft) 100,00 %
23.09.2019 08:18 14,8 C 13,9 C 13,3 C 98 % 1013,4 hPa 0,0 l/m 0 min 0 min 31 W/m 0,0 km/h (0 Bft) 97,87 %
23.09.2019 08:20 14,8 C 13,9 C 13,3 C 98 % 1013,4 hPa 0,0 l/m 0 min 0 min 29 W/m 0,0 km/h (0 Bft) 100,00 %
23.09.2019 08:22 14,8 C 13,9 C 13,3 C 98 % 1013,5 hPa 0,0 l/m 0 min 0 min 28 W/m 3,2 km/h (1 Bft) 100,00 %
23.09.2019 08:24 14,8 C 13,9 C 13,3 C 98 % 1013,4 hPa 0,0 l/m 0 min 0 min 25 W/m 3,2 km/h (1 Bft) 100,00 %
23.09.2019 08:26 14,8 C 13,9 C 13,3 C 98 % 1013,5 hPa 0,0 l/m 0 min 0 min 27 W/m 6,4 km/h (2 Bft) 100,00 %
23.09.2019 08:28 14,8 C 13,9 C 13,3 C 98 % 1013,5 hPa 0,0 l/m 0 min 0 min 28 W/m 0,0 km/h (0 Bft) 100,00 %
23.09.2019 08:30 14,8 C 13,9 C 13,3 C 98 % 1013,6 hPa 0,0 l/m 0 min 0 min 30 W/m 6,4 km/h (2 Bft) 100,00 %
23.09.2019 08:32 14,8 C 13,9 C 13,3 C 98 % 1013,5 hPa 0,0 l/m 0 min 0 min 38 W/m 0,0 km/h (0 Bft) 100,00 %
23.09.2019 08:34 14,8 C 13,9 C 13,3 C 98 % 1013,6 hPa 0,0 l/m 0 min 0 min 40 W/m 9,7 km/h (2 Bft) 100,00 %
23.09.2019 08:36 14,8 C 13,9 C 13,3 C 98 % 1013,6 hPa 0,0 l/m 0 min 0 min 38 W/m 6,4 km/h (2 Bft) 100,00 %
23.09.2019 08:38 14,8 C 13,9 C 13,3 C 98 % 1013,6 hPa 0,0 l/m 0 min 0 min 37 W/m 9,7 km/h (2 Bft) 100,00 %
23.09.2019 08:40 14,8 C 13,9 C 13,3 C 98 % 1013,6 hPa 0,0 l/m 0 min 0 min 34 W/m 3,2 km/h (1 Bft) 100,00 %
23.09.2019 08:42 14,8 C 13,9 C 13,3 C 98 % 1013,5 hPa 0,0 l/m 0 min 0 min 37 W/m 3,2 km/h (1 Bft) 97,87 %
23.09.2019 08:44 14,8 C 13,9 C 13,9 C 98 % 1013,6 hPa 0,0 l/m 0 min 0 min 42 W/m 3,2 km/h (1 Bft) 97,87 %
23.09.2019 08:46 14,8 C 13,9 C 13,9 C 98 % 1013,6 hPa 0,0 l/m 0 min 0 min 39 W/m 3,2 km/h (1 Bft) 97,87 %
23.09.2019 08:48 14,8 C 13,9 C 13,9 C 98 % 1013,7 hPa 0,0 l/m 0 min 0 min 38 W/m 3,2 km/h (1 Bft) 100,00 %
23.09.2019 08:50 14,8 C 13,9 C 13,9 C 98 % 1013,7 hPa 0,0 l/m 0 min 0 min 40 W/m 3,2 km/h (1 Bft) 100,00 %
23.09.2019 08:52 14,8 C 13,9 C 13,9 C 98 % 1013,7 hPa 0,0 l/m 0 min 0 min 39 W/m 3,2 km/h (1 Bft) 97,87 %
23.09.2019 08:54 14,8 C 14,4 C 13,9 C 98 % 1013,7 hPa 0,0 l/m 0 min 0 min 43 W/m 6,4 km/h (2 Bft) 95,74 %
23.09.2019 08:56 14,8 C 14,4 C 13,9 C 98 % 1013,7 hPa 0,0 l/m 0 min 0 min 48 W/m 3,2 km/h (1 Bft) 100,00 %
23.09.2019 08:58 14,8 C 14,4 C 13,9 C 98 % 1013,7 hPa 0,0 l/m 0 min 0 min 49 W/m 0,0 km/h (0 Bft) 100,00 %
23.09.2019 09:00 14,8 C 14,4 C 13,9 C 98 % 1013,9 hPa 0,0 l/m 0 min 0 min 43 W/m 3,2 km/h (1 Bft) 97,87 %
23.09.2019 09:02 14,8 C 14,4 C 13,9 C 98 % 1013,8 hPa 0,0 l/m 0 min 0 min 36 W/m 6,4 km/h (2 Bft) 97,83 %
23.09.2019 09:04 14,8 C 14,4 C 13,9 C 98 % 1013,9 hPa 0,0 l/m 0 min 0 min 39 W/m 6,4 km/h (2 Bft) 97,87 %
23.09.2019 09:06 14,8 C 14,4 C 13,9 C 98 % 1013,9 hPa 0,0 l/m 0 min 0 min 41 W/m 6,4 km/h (2 Bft) 95,74 %
23.09.2019 09:08 14,9 C 14,4 C 13,9 C 98 % 1014,0 hPa 0,0 l/m 0 min 0 min 34 W/m 6,4 km/h (2 Bft) 97,87 %
23.09.2019 09:10 14,9 C 14,4 C 13,9 C 98 % 1014,0 hPa 0,0 l/m 0 min 0 min 24 W/m 3,2 km/h (1 Bft) 95,74 %
23.09.2019 09:12 14,9 C 14,4 C 13,9 C 98 % 1014,0 hPa 0,0 l/m 0 min 0 min 22 W/m 6,4 km/h (2 Bft) 95,65 %
23.09.2019 09:14 14,9 C 14,4 C 13,9 C 98 % 1014,0 hPa 0,0 l/m 0 min 0 min 27 W/m 6,4 km/h (2 Bft) 93,62 %
23.09.2019 09:16 14,9 C 14,4 C 13,9 C 98 % 1014,0 hPa 0,0 l/m 0 min 0 min 36 W/m 3,2 km/h (1 Bft) 95,74 %
23.09.2019 09:18 14,9 C 14,4 C 13,9 C 98 % 1014,0 hPa 0,0 l/m 0 min 0 min 46 W/m 3,2 km/h (1 Bft) 93,62 %
23.09.2019 09:20 14,9 C 14,4 C 13,9 C 98 % 1014,0 hPa 0,0 l/m 0 min 0 min 60 W/m 0,0 km/h (0 Bft) 93,62 %
23.09.2019 09:22 14,9 C 14,4 C 13,9 C 98 % 1014,0 hPa 0,0 l/m 0 min 0 min 76 W/m 0,0 km/h (0 Bft) 95,74 %
23.09.2019 09:24 14,9 C 14,4 C 13,9 C 98 % 1014,1 hPa 0,0 l/m 0 min 0 min 77 W/m 0,0 km/h (0 Bft) 95,65 %
23.09.2019 09:26 14,9 C 14,4 C 13,9 C 98 % 1014,1 hPa 0,0 l/m 0 min 0 min 90 W/m 0,0 km/h (0 Bft) 93,62 %
23.09.2019 09:28 14,9 C 15,0 C 13,9 C 98 % 1014,1 hPa 0,0 l/m 0 min 0 min 103 W/m 0,0 km/h (0 Bft) 95,74 %
23.09.2019 09:30 15,0 C 15,0 C 13,9 C 98 % 1014,1 hPa 0,0 l/m 0 min 0 min 82 W/m 0,0 km/h (0 Bft) 95,74 %
23.09.2019 09:32 15,0 C 14,4 C 13,9 C 98 % 1014,1 hPa 0,0 l/m 0 min 0 min 64 W/m 0,0 km/h (0 Bft) 95,74 %
23.09.2019 09:34 15,1 C 14,4 C 13,9 C 98 % 1014,3 hPa 0,0 l/m 0 min 0 min 69 W/m 9,7 km/h (2 Bft) 95,74 %
23.09.2019 09:36 15,1 C 14,4 C 13,9 C 98 % 1014,3 hPa 0,0 l/m 0 min 0 min 68 W/m 0,0 km/h (0 Bft) 95,65 %
23.09.2019 09:38 15,1 C 14,4 C 13,9 C 98 % 1014,3 hPa 0,0 l/m 0 min 0 min 65 W/m 3,2 km/h (1 Bft) 93,62 %
23.09.2019 09:40 15,1 C 14,4 C 13,9 C 98 % 1014,3 hPa 0,0 l/m 0 min 0 min 59 W/m 0,0 km/h (0 Bft) 95,74 %
23.09.2019 09:42 15,1 C 15,0 C 13,9 C 98 % 1014,3 hPa 0,0 l/m 0 min 0 min 66 W/m 9,7 km/h (2 Bft) 93,62 %
23.09.2019 09:44 15,2 C 15,0 C 13,9 C 98 % 1014,3 hPa 0,0 l/m 0 min 0 min 86 W/m 3,2 km/h (1 Bft) 95,74 %
23.09.2019 09:46 15,2 C 15,0 C 14,4 C 98 % 1014,4 hPa 0,0 l/m 0 min 0 min 92 W/m 6,4 km/h (2 Bft) 95,74 %
23.09.2019 09:48 15,2 C 15,0 C 14,4 C 98 % 1014,4 hPa 0,0 l/m 0 min 0 min 71 W/m 3,2 km/h (1 Bft) 95,65 %
23.09.2019 09:50 15,2 C 14,4 C 13,9 C 98 % 1014,4 hPa 0,0 l/m 0 min 0 min 51 W/m 3,2 km/h (1 Bft) 97,87 %
23.09.2019 09:52 15,2 C 14,4 C 13,9 C 98 % 1014,4 hPa 0,0 l/m 0 min 0 min 51 W/m 9,7 km/h (2 Bft) 97,87 %
23.09.2019 09:54 15,2 C 14,4 C 13,9 C 98 % 1014,6 hPa 0,0 l/m 0 min 0 min 52 W/m 6,4 km/h (2 Bft) 100,00 %
23.09.2019 09:56 15,2 C 14,4 C 13,9 C 98 % 1014,5 hPa 0,0 l/m 0 min 0 min 62 W/m 9,7 km/h (2 Bft) 100,00 %
23.09.2019 09:58 15,2 C 15,0 C 13,9 C 98 % 1014,5 hPa 0,0 l/m 0 min 0 min 72 W/m 12,9 km/h (3 Bft) 97,87 %
23.09.2019 10:00 15,3 C 15,0 C 14,4 C 98 % 1014,4 hPa 0,0 l/m 0 min 0 min 64 W/m 6,4 km/h (2 Bft) 100,00 %
23.09.2019 10:02 15,3 C 15,0 C 13,9 C 98 % 1014,5 hPa 0,0 l/m 0 min 0 min 62 W/m 6,4 km/h (2 Bft) 100,00 %
23.09.2019 10:04 15,3 C 15,0 C 14,4 C 98 % 1014,5 hPa 0,0 l/m 0 min 0 min 60 W/m 3,2 km/h (1 Bft) 97,87 %
23.09.2019 10:06 15,3 C 14,4 C 14,4 C 98 % 1014,5 hPa 0,0 l/m 0 min 0 min 52 W/m 3,2 km/h (1 Bft) 100,00 %
23.09.2019 10:08 15,3 C 14,4 C 13,9 C 98 % 1014,6 hPa 0,0 l/m 0 min 0 min 41 W/m 9,7 km/h (2 Bft) 95,74 %
23.09.2019 10:10 15,3 C 14,4 C 13,9 C 98 % 1014,6 hPa 0,0 l/m 0 min 0 min 37 W/m 6,4 km/h (2 Bft) 100,00 %
23.09.2019 10:12 15,3 C 14,4 C 13,9 C 98 % 1014,6 hPa 0,0 l/m 0 min 0 min 40 W/m 3,2 km/h (1 Bft) 97,87 %
23.09.2019 10:14 15,3 C 14,4 C 13,9 C 98 % 1014,5 hPa 0,0 l/m 0 min 0 min 48 W/m 3,2 km/h (1 Bft) 97,87 %
23.09.2019 10:16 15,3 C 14,4 C 13,9 C 98 % 1014,5 hPa 0,0 l/m 0 min 0 min 47 W/m 3,2 km/h (1 Bft) 97,87 %
23.09.2019 10:18 15,3 C 14,4 C 13,9 C 98 % 1014,5 hPa 0,0 l/m 0 min 0 min 41 W/m 6,4 km/h (2 Bft) 97,87 %
23.09.2019 10:20 15,3 C 14,4 C 13,9 C 98 % 1014,5 hPa 0,0 l/m 0 min 0 min 41 W/m 9,7 km/h (2 Bft) 97,87 %
23.09.2019 10:22 15,3 C 14,4 C 13,9 C 98 % 1014,6 hPa 0,0 l/m 0 min 0 min 42 W/m 3,2 km/h (1 Bft) 97,83 %
23.09.2019 10:24 15,3 C 15,0 C 13,9 C 98 % 1014,6 hPa 0,0 l/m 0 min 0 min 46 W/m 6,4 km/h (2 Bft) 97,87 %
23.09.2019 10:26 15,3 C 15,0 C 13,9 C 98 % 1014,7 hPa 0,0 l/m 0 min 0 min 57 W/m 3,2 km/h (1 Bft) 97,87 %
23.09.2019 10:28 15,3 C 15,0 C 14,4 C 98 % 1014,6 hPa 0,0 l/m 0 min 0 min 70 W/m 6,4 km/h (2 Bft) 97,87 %
23.09.2019 10:30 15,3 C 15,0 C 14,4 C 98 % 1014,6 hPa 0,0 l/m 0 min 0 min 79 W/m 3,2 km/h (1 Bft) 97,87 %
23.09.2019 10:32 15,4 C 15,0 C 14,4 C 98 % 1014,6 hPa 0,0 l/m 0 min 0 min 83 W/m 3,2 km/h (1 Bft) 97,87 %
23.09.2019 10:34 15,4 C 15,0 C 14,4 C 98 % 1014,7 hPa 0,0 l/m 0 min 0 min 83 W/m 3,2 km/h (1 Bft) 97,83 %
23.09.2019 10:36 15,4 C 15,6 C 14,4 C 98 % 1014,6 hPa 0,0 l/m 0 min 0 min 87 W/m 3,2 km/h (1 Bft) 97,87 %
23.09.2019 10:38 15,4 C 15,0 C 14,4 C 98 % 1014,6 hPa 0,0 l/m 0 min 0 min 90 W/m 6,4 km/h (2 Bft) 95,74 %
23.09.2019 10:40 15,4 C 15,6 C 14,4 C 98 % 1014,7 hPa 0,0 l/m 0 min 0 min 91 W/m 6,4 km/h (2 Bft) 97,87 %
23.09.2019 10:42 15,4 C 15,0 C 14,4 C 98 % 1014,7 hPa 0,0 l/m 0 min 0 min 87 W/m 12,9 km/h (3 Bft) 97,87 %
23.09.2019 10:44 15,5 C 15,0 C 14,4 C 98 % 1014,7 hPa 0,0 l/m 0 min 0 min 79 W/m 9,7 km/h (2 Bft) 97,87 %
23.09.2019 10:46 15,5 C 15,0 C 14,4 C 98 % 1014,7 hPa 0,0 l/m 0 min 0 min 87 W/m 9,7 km/h (2 Bft) 97,83 %
23.09.2019 10:48 15,5 C 15,6 C 14,4 C 98 % 1014,6 hPa 0,0 l/m 0 min 0 min 100 W/m 6,4 km/h (2 Bft) 97,92 %
23.09.2019 10:50 15,5 C 15,6 C 14,4 C 98 % 1014,6 hPa 0,0 l/m 0 min 0 min 116 W/m 6,4 km/h (2 Bft) 95,74 %
23.09.2019 10:52 15,6 C 15,6 C 14,4 C 98 % 1014,7 hPa 0,0 l/m 0 min 0 min 125 W/m 3,2 km/h (1 Bft) 97,87 %
23.09.2019 10:54 15,6 C 15,6 C 15,0 C 98 % 1014,7 hPa 0,0 l/m 0 min 0 min 118 W/m 3,2 km/h (1 Bft) 97,87 %
23.09.2019 10:56 15,6 C 15,6 C 15,0 C 98 % 1014,7 hPa 0,0 l/m 0 min 0 min 115 W/m 3,2 km/h (1 Bft) 97,87 %
23.09.2019 10:58 15,6 C 15,6 C 15,0 C 98 % 1014,7 hPa 0,0 l/m 0 min 0 min 114 W/m 6,4 km/h (2 Bft) 97,83 %
23.09.2019 11:00 15,6 C 15,6 C 15,0 C 99 % 1014,7 hPa 0,0 l/m 0 min 0 min 119 W/m 12,9 km/h (3 Bft) 97,87 %
23.09.2019 11:02 15,7 C 15,6 C 15,0 C 99 % 1014,7 hPa 0,0 l/m 0 min 0 min 121 W/m 9,7 km/h (2 Bft) 97,87 %
23.09.2019 11:04 15,7 C 15,6 C 15,0 C 99 % 1014,7 hPa 0,0 l/m 0 min 0 min 119 W/m 3,2 km/h (1 Bft) 97,87 %
23.09.2019 11:06 15,7 C 15,6 C 15,0 C 99 % 1014,7 hPa 0,0 l/m 0 min 0 min 109 W/m 3,2 km/h (1 Bft) 100,00 %
23.09.2019 11:08 15,7 C 15,6 C 15,0 C 99 % 1014,8 hPa 0,0 l/m 0 min 0 min 146 W/m 9,7 km/h (2 Bft) 100,00 %
23.09.2019 11:10 15,7 C 16,1 C 15,0 C 99 % 1014,8 hPa 0,0 l/m 0 min 0 min 133 W/m 6,4 km/h (2 Bft) 100,00 %
23.09.2019 11:12 15,8 C 15,6 C 15,0 C 99 % 1014,8 hPa 0,0 l/m 0 min 0 min 105 W/m 3,2 km/h (1 Bft) 97,87 %
23.09.2019 11:14 15,8 C 15,6 C 15,0 C 98 % 1014,7 hPa 0,0 l/m 0 min 0 min 89 W/m 3,2 km/h (1 Bft) 100,00 %
23.09.2019 11:16 15,8 C 15,6 C 15,0 C 98 % 1014,7 hPa 0,0 l/m 0 min 0 min 68 W/m 3,2 km/h (1 Bft) 100,00 %
23.09.2019 11:18 15,9 C 15,6 C 15,0 C 98 % 1014,8 hPa 0,0 l/m 0 min 0 min 63 W/m 3,2 km/h (1 Bft) 100,00 %
23.09.2019 11:20 15,9 C 15,6 C 15,0 C 98 % 1014,7 hPa 0,0 l/m 0 min 0 min 73 W/m 3,2 km/h (1 Bft) 100,00 %
23.09.2019 11:22 15,9 C 15,6 C 15,0 C 98 % 1014,8 hPa 0,0 l/m 0 min 0 min 83 W/m 9,7 km/h (2 Bft) 97,87 %
23.09.2019 11:24 15,9 C 15,6 C 15,0 C 98 % 1014,8 hPa 0,0 l/m 0 min 0 min 88 W/m 9,7 km/h (2 Bft) 100,00 %
23.09.2019 11:26 15,9 C 15,6 C 15,0 C 98 % 1014,8 hPa 0,0 l/m 0 min 0 min 79 W/m 6,4 km/h (2 Bft) 100,00 %
23.09.2019 11:28 15,9 C 15,6 C 15,0 C 98 % 1014,8 hPa 0,0 l/m 0 min 0 min 72 W/m 6,4 km/h (2 Bft) 97,87 %
23.09.2019 11:30 15,9 C 15,6 C 15,0 C 98 % 1014,8 hPa 0,0 l/m 0 min 0 min 70 W/m 9,7 km/h (2 Bft) 100,00 %
23.09.2019 11:32 15,9 C 15,6 C 15,0 C 98 % 1014,8 hPa 0,0 l/m 0 min 0 min 66 W/m 6,4 km/h (2 Bft) 97,83 %
23.09.2019 11:34 15,9 C 15,6 C 14,4 C 98 % 1014,9 hPa 0,0 l/m 0 min 0 min 64 W/m 3,2 km/h (1 Bft) 100,00 %
23.09.2019 11:36 15,9 C 15,6 C 15,0 C 98 % 1014,9 hPa 0,0 l/m 0 min 0 min 63 W/m 3,2 km/h (1 Bft) 100,00 %
23.09.2019 11:38 15,9 C 15,6 C 14,4 C 98 % 1014,9 hPa 0,0 l/m 0 min 0 min 70 W/m 12,9 km/h (3 Bft) 95,74 %
23.09.2019 11:40 15,9 C 15,6 C 14,4 C 98 % 1014,9 hPa 0,0 l/m 0 min 0 min 83 W/m 6,4 km/h (2 Bft) 97,87 %
23.09.2019 11:42 15,9 C 15,6 C 14,4 C 98 % 1014,9 hPa 0,0 l/m 0 min 0 min 85 W/m 9,7 km/h (2 Bft) 97,87 %
23.09.2019 11:44 15,9 C 15,6 C 14,4 C 98 % 1014,9 hPa 0,0 l/m 0 min 0 min 72 W/m 3,2 km/h (1 Bft) 97,83 %
23.09.2019 11:46 15,9 C 15,6 C 15,0 C 98 % 1014,9 hPa 0,0 l/m 0 min 0 min 70 W/m 6,4 km/h (2 Bft) 95,74 %
23.09.2019 11:48 15,9 C 15,6 C 15,0 C 98 % 1014,9 hPa 0,0 l/m 0 min 0 min 71 W/m 3,2 km/h (1 Bft) 95,74 %
23.09.2019 11:50 15,9 C 15,6 C 15,0 C 98 % 1014,9 hPa 0,0 l/m 0 min 0 min 93 W/m 6,4 km/h (2 Bft) 95,74 %
23.09.2019 11:52 15,9 C 16,1 C 15,0 C 98 % 1014,9 hPa 0,0 l/m 0 min 0 min 124 W/m 12,9 km/h (3 Bft) 95,74 %
23.09.2019 11:54 15,9 C 15,6 C 15,0 C 98 % 1015,0 hPa 0,0 l/m 0 min 0 min 121 W/m 12,9 km/h (3 Bft) 97,83 %
23.09.2019 11:56 15,9 C 15,6 C 15,0 C 98 % 1014,9 hPa 0,0 l/m 0 min 0 min 96 W/m 6,4 km/h (2 Bft) 91,49 %
23.09.2019 11:58 15,9 C 15,6 C 15,0 C 98 % 1014,9 hPa 0,0 l/m 0 min 0 min 83 W/m 3,2 km/h (1 Bft) 93,62 %
23.09.2019 12:00 15,9 C 15,6 C 15,0 C 98 % 1014,9 hPa 0,0 l/m 0 min 0 min 87 W/m 6,4 km/h (2 Bft) 95,74 %
23.09.2019 12:02 15,9 C 15,6 C 15,0 C 98 % 1014,9 hPa 0,0 l/m 0 min 0 min 115 W/m 3,2 km/h (1 Bft) 95,74 %
23.09.2019 12:04 15,9 C 16,1 C 15,0 C 98 % 1014,9 hPa 0,0 l/m 0 min 0 min 128 W/m 6,4 km/h (2 Bft) 95,74 %
23.09.2019 12:08 15,9 C 16,1 C 15,0 C 98 % 1014,9 hPa 0,0 l/m 0 min 0 min 143 W/m 6,4 km/h (2 Bft) 95,70 %
23.09.2019 12:10 16,0 C 16,7 C 15,0 C 98 % 1014,9 hPa 0,0 l/m 0 min 0 min 182 W/m 9,7 km/h (2 Bft) 93,62 %
23.09.2019 12:12 16,0 C 16,7 C 15,6 C 98 % 1014,9 hPa 0,0 l/m 0 min 0 min 238 W/m 6,4 km/h (2 Bft) 93,62 %
23.09.2019 12:14 16,1 C 17,2 C 15,6 C 98 % 1014,9 hPa 0,0 l/m 0 min 0 min 278 W/m 16,1 km/h (3 Bft) 95,74 %
23.09.2019 12:16 16,1 C 17,8 C 15,6 C 98 % 1014,9 hPa 0,0 l/m 2 min 0 min 344 W/m 6,4 km/h (2 Bft) 95,74 %
23.09.2019 12:18 16,1 C 18,9 C 16,1 C 98 % 1015,0 hPa 0,0 l/m 2 min 0 min 388 W/m 9,7 km/h (2 Bft) 93,48 %
23.09.2019 12:20 16,2 C 19,4 C 16,1 C 98 % 1014,9 hPa 0,0 l/m 2 min 0 min 386 W/m 6,4 km/h (2 Bft) 95,74 %
23.09.2019 12:22 16,3 C 20,0 C 16,1 C 98 % 1014,9 hPa 0,0 l/m 2 min 0 min 423 W/m 19,3 km/h (3 Bft) 95,74 %
23.09.2019 12:24 16,3 C 20,6 C 16,1 C 98 % 1014,7 hPa 0,0 l/m 2 min 0 min 433 W/m 3,2 km/h (1 Bft) 97,87 %
23.09.2019 12:26 16,4 C 21,1 C 16,1 C 98 % 1014,6 hPa 0,0 l/m 2 min 0 min 436 W/m 12,9 km/h (3 Bft) 97,87 %
23.09.2019 12:28 16,6 C 22,8 C 16,7 C 98 % 1014,7 hPa 0,0 l/m 2 min 0 min 578 W/m 12,9 km/h (3 Bft) 97,87 %
23.09.2019 12:30 16,7 C 22,8 C 16,7 C 98 % 1014,7 hPa 0,0 l/m 2 min 0 min 570 W/m 9,7 km/h (2 Bft) 97,83 %
23.09.2019 12:32 16,8 C 21,7 C 16,7 C 98 % 1014,8 hPa 0,0 l/m 2 min 0 min 473 W/m 6,4 km/h (2 Bft) 95,74 %
23.09.2019 12:34 16,9 C 20,6 C 16,7 C 98 % 1014,8 hPa 0,0 l/m 2 min 0 min 434 W/m 25,7 km/h (4 Bft) 95,74 %
23.09.2019 12:36 17,0 C 20,6 C 16,7 C 97 % 1014,7 hPa 0,0 l/m 2 min 0 min 368 W/m 3,2 km/h (1 Bft) 97,87 %
23.09.2019 12:38 17,1 C 20,0 C 16,7 C 97 % 1014,7 hPa 0,0 l/m 0 min 0 min 300 W/m 12,9 km/h (3 Bft) 97,87 %
23.09.2019 12:40 17,1 C 19,4 C 16,1 C 97 % 1014,7 hPa 0,0 l/m 0 min 0 min 238 W/m 6,4 km/h (2 Bft) 97,87 %
23.09.2019 12:42 17,2 C 19,4 C 16,1 C 96 % 1014,7 hPa 0,0 l/m 0 min 0 min 253 W/m 3,2 km/h (1 Bft) 97,83 %
23.09.2019 12:44 17,3 C 20,0 C 16,7 C 96 % 1014,7 hPa 0,0 l/m 0 min 0 min 301 W/m 3,2 km/h (1 Bft) 97,87 %
23.09.2019 12:46 17,4 C 20,0 C 16,7 C 96 % 1014,8 hPa 0,0 l/m 2 min 0 min 363 W/m 6,4 km/h (2 Bft) 97,87 %
23.09.2019 12:48 17,4 C 22,2 C 16,7 C 96 % 1014,7 hPa 0,0 l/m 2 min 0 min 394 W/m 3,2 km/h (1 Bft) 97,87 %
23.09.2019 12:50 17,6 C 22,8 C 17,2 C 96 % 1014,7 hPa 0,0 l/m 2 min 0 min 438 W/m 3,2 km/h (1 Bft) 97,87 %
23.09.2019 12:52 17,7 C 23,3 C 17,2 C 95 % 1014,7 hPa 0,0 l/m 2 min 0 min 469 W/m 9,7 km/h (2 Bft) 95,74 %
23.09.2019 12:54 17,8 C 21,7 C 17,2 C 95 % 1014,7 hPa 0,0 l/m 2 min 0 min 407 W/m 6,4 km/h (2 Bft) 97,83 %
23.09.2019 12:56 17,9 C 21,1 C 16,7 C 94 % 1014,6 hPa 0,0 l/m 0 min 0 min 248 W/m 6,4 km/h (2 Bft) 97,87 %
23.09.2019 12:58 17,9 C 20,0 C 16,7 C 94 % 1014,7 hPa 0,0 l/m 0 min 0 min 208 W/m 9,7 km/h (2 Bft) 95,74 %
23.09.2019 13:00 17,9 C 19,4 C 16,7 C 93 % 1014,7 hPa 0,0 l/m 0 min 0 min 161 W/m 3,2 km/h (1 Bft) 97,87 %
23.09.2019 13:02 17,9 C 18,9 C 16,1 C 92 % 1014,7 hPa 0,0 l/m 0 min 0 min 116 W/m 6,4 km/h (2 Bft) 95,74 %
23.09.2019 13:04 18,0 C 18,3 C 16,1 C 91 % 1014,7 hPa 0,0 l/m 0 min 0 min 105 W/m 6,4 km/h (2 Bft) 95,74 %
23.09.2019 13:06 18,0 C 18,3 C 15,6 C 91 % 1014,7 hPa 0,0 l/m 0 min 0 min 106 W/m 6,4 km/h (2 Bft) 97,83 %
23.09.2019 13:08 18,0 C 17,8 C 15,6 C 91 % 1014,7 hPa 0,0 l/m 0 min 0 min 115 W/m 6,4 km/h (2 Bft) 100,00 %
23.09.2019 13:10 18,0 C 17,8 C 15,6 C 90 % 1014,7 hPa 0,0 l/m 0 min 0 min 141 W/m 0,0 km/h (0 Bft) 97,87 %
23.09.2019 13:12 18,1 C 18,3 C 16,1 C 90 % 1014,8 hPa 0,0 l/m 0 min 0 min 172 W/m 3,2 km/h (1 Bft) 97,87 %
23.09.2019 13:14 18,1 C 18,3 C 16,1 C 90 % 1014,7 hPa 0,0 l/m 0 min 0 min 175 W/m 3,2 km/h (1 Bft) 97,87 %
23.09.2019 13:16 18,1 C 18,3 C 16,1 C 90 % 1014,8 hPa 0,0 l/m 0 min 0 min 176 W/m 6,4 km/h (2 Bft) 93,48 %
23.09.2019 13:18 18,0 C 18,3 C 16,1 C 90 % 1014,8 hPa 0,0 l/m 0 min 0 min 189 W/m 9,7 km/h (2 Bft) 97,87 %
23.09.2019 13:20 18,0 C 18,3 C 16,1 C 89 % 1014,8 hPa 0,0 l/m 0 min 0 min 178 W/m 12,9 km/h (3 Bft) 97,87 %
23.09.2019 13:22 18,0 C 18,3 C 16,1 C 89 % 1014,8 hPa 0,0 l/m 0 min 0 min 147 W/m 3,2 km/h (1 Bft) 97,87 %
23.09.2019 13:24 18,0 C 18,3 C 16,1 C 89 % 1014,8 hPa 0,0 l/m 0 min 0 min 135 W/m 3,2 km/h (1 Bft) 97,87 %
23.09.2019 13:26 18,0 C 18,9 C 16,1 C 89 % 1014,8 hPa 0,0 l/m 0 min 0 min 218 W/m 3,2 km/h (1 Bft) 97,87 %
23.09.2019 13:28 18,0 C 18,9 C 16,1 C 89 % 1014,8 hPa 0,0 l/m 0 min 0 min 272 W/m 3,2 km/h (1 Bft) 97,83 %
23.09.2019 13:30 18,0 C 18,9 C 16,7 C 88 % 1014,8 hPa 0,0 l/m 0 min 0 min 227 W/m 3,2 km/h (1 Bft) 95,74 %
23.09.2019 13:32 18,0 C 18,9 C 16,7 C 88 % 1014,9 hPa 0,0 l/m 0 min 0 min 201 W/m 3,2 km/h (1 Bft) 97,87 %
23.09.2019 13:34 18,0 C 19,4 C 16,1 C 88 % 1014,9 hPa 0,0 l/m 0 min 0 min 189 W/m 3,2 km/h (1 Bft) 97,87 %
23.09.2019 13:36 18,1 C 19,4 C 16,1 C 88 % 1014,8 hPa 0,0 l/m 0 min 0 min 182 W/m 3,2 km/h (1 Bft) 97,87 %
23.09.2019 13:38 18,1 C 19,4 C 16,7 C 88 % 1014,9 hPa 0,0 l/m 0 min 0 min 186 W/m 3,2 km/h (1 Bft) 97,87 %
23.09.2019 13:40 18,1 C 19,4 C 16,7 C 88 % 1014,9 hPa 0,0 l/m 0 min 0 min 230 W/m 6,4 km/h (2 Bft) 97,83 %
23.09.2019 13:42 18,1 C 19,4 C 16,7 C 88 % 1014,9 hPa 0,0 l/m 0 min 0 min 221 W/m 0,0 km/h (0 Bft) 95,74 %
23.09.2019 13:44 18,1 C 19,4 C 16,7 C 88 % 1014,9 hPa 0,0 l/m 0 min 0 min 203 W/m 6,4 km/h (2 Bft) 95,74 %
23.09.2019 13:46 18,1 C 19,4 C 16,7 C 87 % 1014,9 hPa 0,0 l/m 0 min 0 min 205 W/m 6,4 km/h (2 Bft) 97,87 %
23.09.2019 13:48 18,2 C 20,0 C 16,7 C 87 % 1014,9 hPa 0,0 l/m 0 min 0 min 254 W/m 6,4 km/h (2 Bft) 97,87 %
23.09.2019 13:50 18,2 C 22,2 C 17,8 C 87 % 1015,0 hPa 0,0 l/m 2 min 0 min 352 W/m 6,4 km/h (2 Bft) 95,74 %
23.09.2019 13:52 18,3 C 23,9 C 17,8 C 87 % 1015,0 hPa 0,0 l/m 2 min 0 min 749 W/m 9,7 km/h (2 Bft) 97,83 %
23.09.2019 13:54 18,4 C 25,0 C 18,3 C 87 % 1014,9 hPa 0,0 l/m 2 min 0 min 696 W/m 9,7 km/h (2 Bft) 97,87 %
23.09.2019 13:56 18,6 C 24,4 C 18,3 C 87 % 1014,9 hPa 0,0 l/m 2 min 0 min 506 W/m 9,7 km/h (2 Bft) 97,87 %
23.09.2019 13:58 18,7 C 23,3 C 18,9 C 86 % 1015,0 hPa 0,0 l/m 2 min 0 min 369 W/m 9,7 km/h (2 Bft) 97,87 %
23.09.2019 14:00 18,7 C 21,1 C 18,3 C 84 % 1015,0 hPa 0,0 l/m 0 min 0 min 248 W/m 16,1 km/h (3 Bft) 95,74 %
23.09.2019 14:02 18,8 C 20,0 C 17,8 C 84 % 1015,0 hPa 0,0 l/m 0 min 0 min 205 W/m 9,7 km/h (2 Bft) 97,87 %
23.09.2019 14:04 18,8 C 20,0 C 17,8 C 83 % 1015,0 hPa 0,0 l/m 0 min 0 min 235 W/m 9,7 km/h (2 Bft) 95,65 %
23.09.2019 14:06 18,8 C 19,4 C 17,8 C 82 % 1014,9 hPa 0,0 l/m 0 min 0 min 225 W/m 12,9 km/h (3 Bft) 97,87 %
23.09.2019 14:08 18,8 C 19,4 C 17,2 C 82 % 1014,9 hPa 0,0 l/m 0 min 0 min 213 W/m 9,7 km/h (2 Bft) 94,74 %
23.09.2019 14:10 18,8 C 19,4 C 17,2 C 82 % 1014,9 hPa 0,0 l/m 0 min 0 min 226 W/m 9,7 km/h (2 Bft) 97,87 %
23.09.2019 14:12 18,8 C 20,0 C 17,2 C 82 % 1014,8 hPa 0,0 l/m 0 min 0 min 266 W/m 6,4 km/h (2 Bft) 97,87 %
23.09.2019 14:14 18,8 C 22,2 C 17,8 C 82 % 1014,9 hPa 0,0 l/m 2 min 0 min 385 W/m 9,7 km/h (2 Bft) 97,87 %
23.09.2019 14:16 18,9 C 23,3 C 18,9 C 82 % 1014,9 hPa 0,0 l/m 2 min 0 min 834 W/m 9,7 km/h (2 Bft) 97,83 %
23.09.2019 14:18 18,9 C 22,2 C 18,9 C 81 % 1014,9 hPa 0,0 l/m 2 min 0 min 565 W/m 12,9 km/h (3 Bft) 95,74 %
23.09.2019 14:20 19,1 C 22,2 C 18,9 C 81 % 1014,9 hPa 0,0 l/m 2 min 0 min 401 W/m 9,7 km/h (2 Bft) 97,87 %
23.09.2019 14:22 19,1 C 22,8 C 18,9 C 82 % 1014,9 hPa 0,0 l/m 2 min 0 min 432 W/m 12,9 km/h (3 Bft) 95,74 %
23.09.2019 14:24 19,2 C 22,2 C 18,9 C 81 % 1014,9 hPa 0,0 l/m 2 min 0 min 427 W/m 9,7 km/h (2 Bft) 97,87 %
23.09.2019 14:26 19,3 C 23,3 C 18,9 C 81 % 1014,9 hPa 0,0 l/m 2 min 0 min 396 W/m 9,7 km/h (2 Bft) 97,87 %
23.09.2019 14:28 19,4 C 23,9 C 19,4 C 81 % 1014,9 hPa 0,0 l/m 2 min 0 min 396 W/m 12,9 km/h (3 Bft) 97,83 %
23.09.2019 14:30 19,5 C 25,0 C 19,4 C 81 % 1015,0 hPa 0,0 l/m 2 min 0 min 637 W/m 16,1 km/h (3 Bft) 97,87 %
23.09.2019 14:32 19,6 C 26,1 C 20,0 C 80 % 1014,8 hPa 0,0 l/m 2 min 0 min 608 W/m 9,7 km/h (2 Bft) 97,87 %
23.09.2019 14:34 19,7 C 25,6 C 19,4 C 80 % 1014,9 hPa 0,0 l/m 2 min 0 min 607 W/m 12,9 km/h (3 Bft) 97,87 %
23.09.2019 14:36 19,8 C 22,8 C 19,4 C 79 % 1014,9 hPa 0,0 l/m 2 min 0 min 336 W/m 12,9 km/h (3 Bft) 95,74 %
23.09.2019 14:38 19,8 C 21,7 C 18,9 C 79 % 1014,9 hPa 0,0 l/m 0 min 0 min 256 W/m 9,7 km/h (2 Bft) 100,00 %
23.09.2019 14:40 19,8 C 21,1 C 18,9 C 78 % 1014,9 hPa 0,0 l/m 0 min 0 min 262 W/m 12,9 km/h (3 Bft) 100,00 %
23.09.2019 14:42 19,8 C 20,6 C 18,3 C 78 % 1014,9 hPa 0,0 l/m 0 min 0 min 241 W/m 12,9 km/h (3 Bft) 100,00 %
23.09.2019 14:44 19,8 C 20,6 C 18,3 C 77 % 1014,9 hPa 0,0 l/m 0 min 0 min 214 W/m 9,7 km/h (2 Bft) 100,00 %
23.09.2019 14:46 19,8 C 20,6 C 17,8 C 77 % 1014,9 hPa 0,0 l/m 0 min 0 min 224 W/m 9,7 km/h (2 Bft) 97,87 %
23.09.2019 14:48 19,8 C 20,0 C 17,8 C 77 % 1014,9 hPa 0,0 l/m 0 min 0 min 248 W/m 6,4 km/h (2 Bft) 100,00 %
23.09.2019 14:50 19,8 C 20,6 C 17,8 C 78 % 1014,9 hPa 0,0 l/m 0 min 0 min 241 W/m 9,7 km/h (2 Bft) 100,00 %
23.09.2019 14:52 19,8 C 20,0 C 18,3 C 77 % 1014,9 hPa 0,0 l/m 0 min 0 min 224 W/m 9,7 km/h (2 Bft) 97,83 %
23.09.2019 14:54 19,8 C 20,0 C 18,3 C 77 % 1014,9 hPa 0,0 l/m 0 min 0 min 201 W/m 16,1 km/h (3 Bft) 100,00 %
23.09.2019 14:56 19,7 C 20,0 C 17,8 C 77 % 1014,9 hPa 0,0 l/m 0 min 0 min 187 W/m 9,7 km/h (2 Bft) 97,87 %
23.09.2019 14:58 19,7 C 20,0 C 17,2 C 77 % 1014,8 hPa 0,0 l/m 0 min 0 min 187 W/m 6,4 km/h (2 Bft) 100,00 %
23.09.2019 15:00 19,7 C 20,0 C 17,2 C 77 % 1014,9 hPa 0,0 l/m 0 min 0 min 176 W/m 6,4 km/h (2 Bft) 100,00 %
23.09.2019 15:02 19,7 C 22,2 C 17,8 C 78 % 1014,9 hPa 0,0 l/m 2 min 0 min 326 W/m 12,9 km/h (3 Bft) 100,00 %
23.09.2019 15:04 19,8 C 23,9 C 18,3 C 78 % 1014,9 hPa 0,0 l/m 2 min 0 min 719 W/m 9,7 km/h (2 Bft) 100,00 %
23.09.2019 15:06 19,8 C 23,9 C 18,9 C 78 % 1014,9 hPa 0,0 l/m 2 min 0 min 743 W/m 9,7 km/h (2 Bft) 100,00 %
23.09.2019 15:08 19,9 C 23,9 C 18,9 C 77 % 1014,9 hPa 0,0 l/m 2 min 0 min 744 W/m 12,9 km/h (3 Bft) 100,00 %
23.09.2019 15:10 19,9 C 22,8 C 18,9 C 76 % 1014,9 hPa 0,0 l/m 2 min 0 min 318 W/m 16,1 km/h (3 Bft) 100,00 %
23.09.2019 15:12 19,9 C 23,3 C 18,9 C 76 % 1014,9 hPa 0,0 l/m 2 min 0 min 321 W/m 6,4 km/h (2 Bft) 100,00 %
23.09.2019 15:14 20,0 C 23,3 C 18,9 C 75 % 1014,8 hPa 0,0 l/m 2 min 0 min 679 W/m 12,9 km/h (3 Bft) 100,00 %
23.09.2019 15:16 20,1 C 23,9 C 18,9 C 76 % 1014,9 hPa 0,0 l/m 2 min 0 min 482 W/m 9,7 km/h (2 Bft) 100,00 %
23.09.2019 15:18 20,1 C 24,4 C 19,4 C 75 % 1014,8 hPa 0,0 l/m 2 min 0 min 487 W/m 9,7 km/h (2 Bft) 100,00 %
23.09.2019 15:20 20,2 C 24,4 C 19,4 C 75 % 1015,0 hPa 0,0 l/m 2 min 0 min 566 W/m 9,7 km/h (2 Bft) 100,00 %
23.09.2019 15:22 20,2 C 23,9 C 19,4 C 72 % 1015,0 hPa 0,0 l/m 2 min 0 min 526 W/m 12,9 km/h (3 Bft) 97,87 %
23.09.2019 15:24 20,2 C 23,3 C 18,9 C 72 % 1015,0 hPa 0,0 l/m 2 min 0 min 461 W/m 9,7 km/h (2 Bft) 100,00 %
23.09.2019 15:26 20,3 C 23,9 C 18,9 C 71 % 1014,9 hPa 0,0 l/m 2 min 0 min 445 W/m 12,9 km/h (3 Bft) 100,00 %
23.09.2019 15:28 20,3 C 22,8 C 18,9 C 72 % 1015,0 hPa 0,0 l/m 2 min 0 min 416 W/m 9,7 km/h (2 Bft) 100,00 %
23.09.2019 15:30 20,3 C 22,2 C 18,9 C 71 % 1015,1 hPa 0,0 l/m 0 min 0 min 248 W/m 12,9 km/h (3 Bft) 97,87 %
23.09.2019 15:32 20,3 C 22,2 C 18,9 C 70 % 1015,0 hPa 0,0 l/m 2 min 0 min 274 W/m 16,1 km/h (3 Bft) 97,87 %
23.09.2019 15:34 20,3 C 22,8 C 18,9 C 69 % 1014,9 hPa 0,0 l/m 2 min 0 min 308 W/m 9,7 km/h (2 Bft) 97,87 %
23.09.2019 15:36 20,3 C 23,3 C 18,9 C 70 % 1014,9 hPa 0,0 l/m 2 min 0 min 445 W/m 9,7 km/h (2 Bft) 100,00 %
23.09.2019 15:38 20,4 C 23,9 C 18,9 C 71 % 1014,9 hPa 0,0 l/m 2 min 0 min 568 W/m 9,7 km/h (2 Bft) 93,62 %
23.09.2019 15:40 20,4 C 23,9 C 18,9 C 71 % 1014,8 hPa 0,0 l/m 2 min 0 min 422 W/m 9,7 km/h (2 Bft) 97,83 %
23.09.2019 15:42 20,5 C 23,9 C 18,3 C 72 % 1014,8 hPa 0,0 l/m 2 min 0 min 407 W/m 6,4 km/h (2 Bft) 97,87 %
23.09.2019 15:44 20,6 C 23,9 C 18,3 C 71 % 1014,9 hPa 0,0 l/m 2 min 0 min 455 W/m 16,1 km/h (3 Bft) 97,87 %
23.09.2019 15:46 20,6 C 24,4 C 18,9 C 71 % 1015,0 hPa 0,0 l/m 2 min 0 min 474 W/m 6,4 km/h (2 Bft) 100,00 %
23.09.2019 15:48 20,6 C 25,0 C 19,4 C 71 % 1014,9 hPa 0,0 l/m 2 min 0 min 636 W/m 12,9 km/h (3 Bft) 97,87 %
23.09.2019 15:50 20,7 C 25,0 C 19,4 C 71 % 1015,0 hPa 0,0 l/m 2 min 0 min 550 W/m 16,1 km/h (3 Bft) 97,87 %
23.09.2019 15:52 20,7 C 25,0 C 19,4 C 69 % 1015,0 hPa 0,0 l/m 2 min 0 min 532 W/m 6,4 km/h (2 Bft) 97,83 %
23.09.2019 15:54 20,8 C 25,6 C 19,4 C 70 % 1015,0 hPa 0,0 l/m 2 min 0 min 581 W/m 9,7 km/h (2 Bft) 95,74 %
23.09.2019 15:56 20,8 C 25,0 C 19,4 C 70 % 1014,9 hPa 0,0 l/m 2 min 0 min 597 W/m 9,7 km/h (2 Bft) 95,74 %
23.09.2019 15:58 20,9 C 25,0 C 19,4 C 70 % 1014,9 hPa 0,0 l/m 2 min 0 min 584 W/m 12,9 km/h (3 Bft) 95,74 %
23.09.2019 16:00 20,9 C 23,3 C 19,4 C 71 % 1014,9 hPa 0,0 l/m 2 min 0 min 535 W/m 9,7 km/h (2 Bft) 95,74 %
23.09.2019 16:02 20,9 C 22,2 C 19,4 C 69 % 1015,0 hPa 0,0 l/m 0 min 0 min 239 W/m 19,3 km/h (3 Bft) 95,65 %
23.09.2019 16:04 20,9 C 23,9 C 19,4 C 69 % 1015,0 hPa 0,0 l/m 2 min 0 min 388 W/m 9,7 km/h (2 Bft) 95,74 %
23.09.2019 16:06 21,0 C 25,6 C 20,0 C 70 % 1015,0 hPa 0,0 l/m 2 min 0 min 601 W/m 9,7 km/h (2 Bft) 91,49 %
23.09.2019 16:08 21,0 C 25,0 C 20,0 C 70 % 1014,9 hPa 0,0 l/m 2 min 0 min 627 W/m 19,3 km/h (3 Bft) 95,74 %
23.09.2019 16:10 21,1 C 25,0 C 20,0 C 70 % 1014,9 hPa 0,0 l/m 2 min 0 min 548 W/m 12,9 km/h (3 Bft) 95,74 %
23.09.2019 16:12 21,2 C 25,6 C 20,0 C 71 % 1014,9 hPa 0,0 l/m 2 min 0 min 542 W/m 6,4 km/h (2 Bft) 93,62 %
23.09.2019 16:14 21,2 C 25,0 C 20,0 C 71 % 1015,0 hPa 0,0 l/m 2 min 0 min 549 W/m 12,9 km/h (3 Bft) 95,65 %
23.09.2019 16:16 21,3 C 25,0 C 20,0 C 70 % 1015,0 hPa 0,0 l/m 2 min 0 min 549 W/m 12,9 km/h (3 Bft) 95,74 %
23.09.2019 16:18 21,3 C 25,6 C 20,0 C 70 % 1015,0 hPa 0,0 l/m 2 min 0 min 544 W/m 6,4 km/h (2 Bft) 95,74 %
23.09.2019 16:20 21,4 C 26,1 C 20,0 C 70 % 1015,0 hPa 0,0 l/m 2 min 0 min 538 W/m 6,4 km/h (2 Bft) 89,36 %
23.09.2019 16:22 21,4 C 25,0 C 20,0 C 70 % 1015,0 hPa 0,0 l/m 2 min 0 min 528 W/m 16,1 km/h (3 Bft) 93,62 %
23.09.2019 16:24 21,4 C 25,0 C 20,0 C 68 % 1015,0 hPa 0,0 l/m 2 min 0 min 521 W/m 12,9 km/h (3 Bft) 93,62 %
23.09.2019 16:26 21,4 C 25,0 C 20,0 C 66 % 1014,9 hPa 0,0 l/m 2 min 0 min 518 W/m 9,7 km/h (2 Bft) 93,48 %
23.09.2019 16:28 21,4 C 25,0 C 20,0 C 67 % 1015,0 hPa 0,0 l/m 2 min 0 min 505 W/m 12,9 km/h (3 Bft) 93,62 %
23.09.2019 16:30 21,5 C 25,6 C 20,0 C 68 % 1015,0 hPa 0,0 l/m 2 min 0 min 489 W/m 9,7 km/h (2 Bft) 93,62 %
23.09.2019 16:32 21,5 C 24,4 C 19,4 C 69 % 1015,1 hPa 0,0 l/m 2 min 0 min 481 W/m 12,9 km/h (3 Bft) 93,62 %
23.09.2019 16:34 21,4 C 22,2 C 19,4 C 68 % 1015,1 hPa 0,0 l/m 2 min 0 min 433 W/m 12,9 km/h (3 Bft) 93,62 %
23.09.2019 16:36 21,3 C 20,6 C 18,9 C 68 % 1015,1 hPa 0,0 l/m 0 min 0 min 105 W/m 16,1 km/h (3 Bft) 89,13 %
23.09.2019 16:38 21,2 C 20,0 C 18,3 C 68 % 1015,1 hPa 0,0 l/m 0 min 0 min 99 W/m 12,9 km/h (3 Bft) 93,62 %
23.09.2019 16:40 21,0 C 19,4 C 18,3 C 68 % 1015,1 hPa 0,0 l/m 0 min 0 min 103 W/m 9,7 km/h (2 Bft) 93,62 %
23.09.2019 16:42 20,9 C 19,4 C 18,3 C 68 % 1015,1 hPa 0,0 l/m 0 min 0 min 108 W/m 6,4 km/h (2 Bft) 91,49 %
23.09.2019 16:44 20,9 C 19,4 C 17,8 C 68 % 1015,1 hPa 0,0 l/m 0 min 0 min 118 W/m 9,7 km/h (2 Bft) 93,62 %
23.09.2019 16:46 20,8 C 19,4 C 17,8 C 69 % 1015,1 hPa 0,0 l/m 0 min 0 min 133 W/m 6,4 km/h (2 Bft) 97,87 %
23.09.2019 16:48 20,7 C 19,4 C 17,8 C 69 % 1015,2 hPa 0,0 l/m 0 min 0 min 146 W/m 9,7 km/h (2 Bft) 97,83 %
23.09.2019 16:50 20,7 C 20,0 C 17,8 C 70 % 1015,1 hPa 0,0 l/m 0 min 0 min 156 W/m 6,4 km/h (2 Bft) 97,87 %
23.09.2019 16:52 20,6 C 20,0 C 17,8 C 70 % 1015,1 hPa 0,0 l/m 0 min 0 min 162 W/m 6,4 km/h (2 Bft) 97,87 %
23.09.2019 16:54 20,6 C 20,0 C 17,8 C 71 % 1015,1 hPa 0,0 l/m 0 min 0 min 185 W/m 6,4 km/h (2 Bft) 93,62 %
23.09.2019 16:56 20,5 C 20,0 C 18,3 C 72 % 1015,0 hPa 0,0 l/m 0 min 0 min 178 W/m 6,4 km/h (2 Bft) 97,87 %
23.09.2019 16:58 20,4 C 20,0 C 18,3 C 71 % 1015,1 hPa 0,0 l/m 0 min 0 min 180 W/m 6,4 km/h (2 Bft) 97,87 %
23.09.2019 17:00 20,4 C 20,0 C 18,3 C 71 % 1015,1 hPa 0,0 l/m 0 min 0 min 181 W/m 9,7 km/h (2 Bft) 97,83 %
23.09.2019 17:02 20,3 C 20,0 C 18,3 C 70 % 1015,1 hPa 0,0 l/m 2 min 0 min 186 W/m 12,9 km/h (3 Bft) 97,87 %
23.09.2019 17:04 20,2 C 20,0 C 18,3 C 71 % 1015,1 hPa 0,0 l/m 2 min 0 min 190 W/m 9,7 km/h (2 Bft) 100,00 %
23.09.2019 17:06 20,1 C 20,0 C 18,3 C 71 % 1015,1 hPa 0,0 l/m 2 min 0 min 184 W/m 9,7 km/h (2 Bft) 100,00 %
23.09.2019 17:08 20,1 C 20,0 C 18,3 C 71 % 1015,1 hPa 0,0 l/m 0 min 0 min 169 W/m 9,7 km/h (2 Bft) 100,00 %
23.09.2019 17:10 20,0 C 19,4 C 18,3 C 71 % 1015,1 hPa 0,0 l/m 0 min 0 min 154 W/m 12,9 km/h (3 Bft) 97,87 %
23.09.2019 17:12 19,9 C 19,4 C 18,3 C 71 % 1015,1 hPa 0,0 l/m 0 min 0 min 146 W/m 9,7 km/h (2 Bft) 97,83 %
23.09.2019 17:14 19,9 C 19,4 C 18,3 C 71 % 1015,0 hPa 0,0 l/m 0 min 0 min 145 W/m 12,9 km/h (3 Bft) 100,00 %
23.09.2019 17:16 19,9 C 19,4 C 18,3 C 71 % 1015,1 hPa 0,0 l/m 0 min 0 min 149 W/m 9,7 km/h (2 Bft) 100,00 %
23.09.2019 17:18 19,8 C 19,4 C 18,3 C 71 % 1015,1 hPa 0,0 l/m 0 min 0 min 151 W/m 12,9 km/h (3 Bft) 97,87 %
23.09.2019 17:20 19,8 C 19,4 C 18,3 C 72 % 1015,0 hPa 0,0 l/m 0 min 0 min 150 W/m 9,7 km/h (2 Bft) 100,00 %
23.09.2019 17:22 19,8 C 19,4 C 18,3 C 71 % 1015,0 hPa 0,0 l/m 0 min 0 min 153 W/m 12,9 km/h (3 Bft) 100,00 %
23.09.2019 17:24 19,7 C 19,4 C 18,3 C 71 % 1015,0 hPa 0,0 l/m 0 min 0 min 146 W/m 16,1 km/h (3 Bft) 100,00 %
23.09.2019 17:26 19,7 C 18,9 C 18,3 C 71 % 1015,1 hPa 0,0 l/m 0 min 0 min 137 W/m 12,9 km/h (3 Bft) 100,00 %
23.09.2019 17:28 19,6 C 18,9 C 18,3 C 71 % 1015,1 hPa 0,0 l/m 0 min 0 min 133 W/m 9,7 km/h (2 Bft) 100,00 %
23.09.2019 17:30 19,6 C 18,9 C 17,8 C 72 % 1015,1 hPa 0,0 l/m 0 min 0 min 126 W/m 9,7 km/h (2 Bft) 100,00 %
23.09.2019 17:32 19,6 C 18,9 C 17,8 C 72 % 1015,2 hPa 0,0 l/m 0 min 0 min 123 W/m 6,4 km/h (2 Bft) 100,00 %
23.09.2019 17:34 19,6 C 18,9 C 18,3 C 72 % 1015,1 hPa 0,0 l/m 0 min 0 min 139 W/m 6,4 km/h (2 Bft) 100,00 %
23.09.2019 17:36 19,5 C 19,4 C 17,8 C 73 % 1015,1 hPa 0,0 l/m 0 min 0 min 132 W/m 6,4 km/h (2 Bft) 100,00 %
23.09.2019 17:38 19,5 C 19,4 C 17,8 C 73 % 1015,1 hPa 0,0 l/m 0 min 0 min 139 W/m 3,2 km/h (1 Bft) 100,00 %
23.09.2019 17:40 19,5 C 19,4 C 18,3 C 73 % 1015,1 hPa 0,0 l/m 2 min 0 min 141 W/m 9,7 km/h (2 Bft) 100,00 %
23.09.2019 17:42 19,5 C 19,4 C 18,3 C 74 % 1015,1 hPa 0,0 l/m 2 min 0 min 137 W/m 3,2 km/h (1 Bft) 100,00 %
23.09.2019 17:44 19,5 C 19,4 C 18,3 C 74 % 1015,0 hPa 0,0 l/m 2 min 0 min 136 W/m 6,4 km/h (2 Bft) 100,00 %
23.09.2019 17:46 19,5 C 19,4 C 18,3 C 74 % 1015,1 hPa 0,0 l/m 0 min 0 min 128 W/m 6,4 km/h (2 Bft) 100,00 %
23.09.2019 17:48 19,5 C 19,4 C 18,3 C 74 % 1015,1 hPa 0,0 l/m 0 min 0 min 122 W/m 6,4 km/h (2 Bft) 100,00 %
23.09.2019 17:50 19,5 C 19,4 C 17,8 C 75 % 1015,1 hPa 0,0 l/m 0 min 0 min 112 W/m 6,4 km/h (2 Bft) 100,00 %
23.09.2019 17:52 19,4 C 19,4 C 17,8 C 75 % 1015,1 hPa 0,0 l/m 0 min 0 min 104 W/m 3,2 km/h (1 Bft) 100,00 %
23.09.2019 17:54 19,4 C 18,9 C 17,8 C 75 % 1015,2 hPa 0,0 l/m 0 min 0 min 100 W/m 6,4 km/h (2 Bft) 100,00 %
23.09.2019 17:56 19,4 C 18,9 C 17,8 C 75 % 1015,1 hPa 0,0 l/m 0 min 0 min 96 W/m 6,4 km/h (2 Bft) 100,00 %
23.09.2019 17:58 19,4 C 18,9 C 17,8 C 75 % 1015,2 hPa 0,0 l/m 0 min 0 min 93 W/m 9,7 km/h (2 Bft) 100,00 %
23.09.2019 18:00 19,4 C 18,9 C 17,8 C 74 % 1015,2 hPa 0,0 l/m 0 min 0 min 88 W/m 12,9 km/h (3 Bft) 100,00 %
23.09.2019 18:02 19,4 C 18,9 C 17,8 C 74 % 1015,2 hPa 0,0 l/m 0 min 0 min 83 W/m 6,4 km/h (2 Bft) 97,87 %
23.09.2019 18:04 19,4 C 18,9 C 17,8 C 75 % 1015,2 hPa 0,0 l/m 0 min 0 min 81 W/m 3,2 km/h (1 Bft) 100,00 %
23.09.2019 18:08 19,4 C 18,9 C 17,8 C 75 % 1015,2 hPa 0,0 l/m 0 min 0 min 79 W/m 6,4 km/h (2 Bft) 98,94 %
23.09.2019 18:10 19,4 C 18,9 C 17,8 C 76 % 1015,2 hPa 0,0 l/m 0 min 0 min 67 W/m 3,2 km/h (1 Bft) 100,00 %
23.09.2019 18:12 19,3 C 18,9 C 17,8 C 76 % 1015,3 hPa 0,0 l/m 0 min 0 min 65 W/m 6,4 km/h (2 Bft) 100,00 %
23.09.2019 18:14 19,3 C 18,9 C 17,8 C 76 % 1015,2 hPa 0,0 l/m 0 min 0 min 63 W/m 6,4 km/h (2 Bft) 100,00 %
23.09.2019 18:16 19,3 C 18,3 C 17,8 C 75 % 1015,3 hPa 0,0 l/m 0 min 0 min 66 W/m 12,9 km/h (3 Bft) 100,00 %
23.09.2019 18:18 19,3 C 18,3 C 17,8 C 75 % 1015,3 hPa 0,0 l/m 0 min 0 min 64 W/m 19,3 km/h (3 Bft) 100,00 %
23.09.2019 18:20 19,2 C 18,3 C 17,8 C 74 % 1015,3 hPa 0,0 l/m 0 min 0 min 61 W/m 16,1 km/h (3 Bft) 100,00 %
23.09.2019 18:22 19,2 C 18,3 C 17,8 C 74 % 1015,3 hPa 0,0 l/m 0 min 0 min 58 W/m 12,9 km/h (3 Bft) 100,00 %
23.09.2019 18:24 19,1 C 18,3 C 17,8 C 73 % 1015,3 hPa 0,0 l/m 0 min 0 min 56 W/m 12,9 km/h (3 Bft) 100,00 %
23.09.2019 18:26 19,1 C 18,3 C 17,8 C 73 % 1015,3 hPa 0,0 l/m 0 min 0 min 56 W/m 9,7 km/h (2 Bft) 100,00 %
23.09.2019 18:28 19,1 C 18,3 C 17,8 C 73 % 1015,3 hPa 0,0 l/m 0 min 0 min 55 W/m 9,7 km/h (2 Bft) 97,87 %
23.09.2019 18:30 19,1 C 18,3 C 17,8 C 74 % 1015,3 hPa 0,0 l/m 0 min 0 min 52 W/m 16,1 km/h (3 Bft) 100,00 %
23.09.2019 18:32 19,0 C 18,3 C 17,8 C 74 % 1015,3 hPa 0,0 l/m 0 min 0 min 48 W/m 9,7 km/h (2 Bft) 97,87 %
23.09.2019 18:34 19,0 C 17,8 C 17,2 C 74 % 1015,3 hPa 0,0 l/m 0 min 0 min 42 W/m 6,4 km/h (2 Bft) 100,00 %
23.09.2019 18:36 18,9 C 17,8 C 17,2 C 74 % 1015,3 hPa 0,0 l/m 0 min 0 min 38 W/m 3,2 km/h (1 Bft) 100,00 %
23.09.2019 18:38 18,9 C 17,8 C 17,2 C 75 % 1015,3 hPa 0,0 l/m 0 min 0 min 35 W/m 9,7 km/h (2 Bft) 100,00 %
23.09.2019 18:40 18,9 C 17,8 C 17,2 C 75 % 1015,4 hPa 0,0 l/m 0 min 0 min 33 W/m 3,2 km/h (1 Bft) 100,00 %
23.09.2019 18:42 18,9 C 17,8 C 17,2 C 75 % 1015,4 hPa 0,0 l/m 0 min 0 min 32 W/m 6,4 km/h (2 Bft) 100,00 %
23.09.2019 18:44 18,9 C 17,8 C 17,2 C 75 % 1015,4 hPa 0,0 l/m 0 min 0 min 29 W/m 6,4 km/h (2 Bft) 97,87 %
23.09.2019 18:46 18,9 C 17,8 C 17,2 C 75 % 1015,4 hPa 0,0 l/m 0 min 0 min 27 W/m 12,9 km/h (3 Bft) 95,65 %
23.09.2019 18:48 18,8 C 17,8 C 17,2 C 75 % 1015,4 hPa 0,0 l/m 0 min 0 min 26 W/m 19,3 km/h (3 Bft) 100,00 %
23.09.2019 18:50 18,8 C 17,8 C 17,2 C 75 % 1015,4 hPa 0,0 l/m 0 min 0 min 26 W/m 9,7 km/h (2 Bft) 100,00 %
23.09.2019 18:52 18,8 C 17,8 C 17,2 C 76 % 1015,5 hPa 0,0 l/m 0 min 0 min 26 W/m 6,4 km/h (2 Bft) 93,62 %
23.09.2019 18:54 18,7 C 17,8 C 17,2 C 76 % 1015,4 hPa 0,0 l/m 0 min 0 min 24 W/m 3,2 km/h (1 Bft) 95,74 %
23.09.2019 18:56 18,7 C 17,8 C 17,2 C 76 % 1015,5 hPa 0,0 l/m 0 min 0 min 22 W/m 3,2 km/h (1 Bft) 93,62 %
23.09.2019 18:58 18,7 C 17,2 C 17,2 C 76 % 1015,4 hPa 0,0 l/m 0 min 0 min 18 W/m 12,9 km/h (3 Bft) 93,62 %
23.09.2019 19:00 18,7 C 17,2 C 16,7 C 76 % 1015,5 hPa 0,0 l/m 0 min 0 min 14 W/m 12,9 km/h (3 Bft) 95,74 %
23.09.2019 19:02 18,6 C 17,2 C 16,7 C 75 % 1015,5 hPa 0,0 l/m 0 min 0 min 16 W/m 16,1 km/h (3 Bft) 93,62 %
23.09.2019 19:04 18,6 C 17,2 C 16,7 C 75 % 1015,5 hPa 0,0 l/m 0 min 0 min 17 W/m 12,9 km/h (3 Bft) 91,49 %
23.09.2019 19:06 18,5 C 17,2 C 16,7 C 75 % 1015,5 hPa 0,0 l/m 0 min 0 min 16 W/m 12,9 km/h (3 Bft) 93,62 %
23.09.2019 19:08 18,5 C 17,2 C 16,7 C 75 % 1015,4 hPa 0,0 l/m 0 min 0 min 14 W/m 9,7 km/h (2 Bft) 93,48 %
23.09.2019 19:10 18,4 C 17,2 C 16,7 C 75 % 1015,5 hPa 0,0 l/m 0 min 0 min 13 W/m 12,9 km/h (3 Bft) 93,62 %
23.09.2019 19:12 18,4 C 17,2 C 16,7 C 75 % 1015,5 hPa 0,0 l/m 0 min 0 min 12 W/m 6,4 km/h (2 Bft) 93,62 %
23.09.2019 19:14 18,4 C 17,2 C 16,7 C 76 % 1015,5 hPa 0,0 l/m 0 min 0 min 11 W/m 6,4 km/h (2 Bft) 89,36 %
23.09.2019 19:16 18,3 C 17,2 C 16,7 C 76 % 1015,5 hPa 0,0 l/m 0 min 0 min 9 W/m 6,4 km/h (2 Bft) 95,74 %
23.09.2019 19:18 18,3 C 17,2 C 16,7 C 76 % 1015,4 hPa 0,0 l/m 0 min 0 min 8 W/m 9,7 km/h (2 Bft) 93,62 %
23.09.2019 19:20 18,3 C 17,2 C 16,7 C 76 % 1015,5 hPa 0,0 l/m 0 min 0 min 6 W/m 6,4 km/h (2 Bft) 93,48 %
23.09.2019 19:22 18,3 C 17,2 C 16,7 C 76 % 1015,5 hPa 0,0 l/m 0 min 0 min 5 W/m 6,4 km/h (2 Bft) 91,49 %
23.09.2019 19:24 18,2 C 17,2 C 16,7 C 76 % 1015,6 hPa 0,0 l/m 0 min 0 min 2 W/m 6,4 km/h (2 Bft) 93,62 %
23.09.2019 19:26 18,2 C 17,2 C 16,7 C 76 % 1015,6 hPa 0,0 l/m 0 min 0 min 0 W/m 9,7 km/h (2 Bft) 93,62 %
23.09.2019 19:28 18,2 C 17,2 C 16,7 C 76 % 1015,5 hPa 0,0 l/m 0 min 0 min 0 W/m 9,7 km/h (2 Bft) 93,62 %
23.09.2019 19:30 18,1 C 16,7 C 16,7 C 76 % 1015,5 hPa 0,0 l/m 0 min 0 min 0 W/m 12,9 km/h (3 Bft) 91,49 %
23.09.2019 19:32 18,1 C 16,7 C 16,7 C 76 % 1015,5 hPa 0,0 l/m 0 min 0 min 0 W/m 6,4 km/h (2 Bft) 93,48 %
23.09.2019 19:34 18,1 C 16,7 C 16,7 C 76 % 1015,6 hPa 0,0 l/m 0 min 0 min 0 W/m 3,2 km/h (1 Bft) 93,62 %
23.09.2019 19:36 18,1 C 16,7 C 16,7 C 76 % 1015,5 hPa 0,0 l/m 0 min 0 min 0 W/m 3,2 km/h (1 Bft) 93,62 %
23.09.2019 19:38 18,1 C 16,7 C 16,1 C 77 % 1015,5 hPa 0,0 l/m 0 min 0 min 0 W/m 0,0 km/h (0 Bft) 93,62 %
23.09.2019 19:40 18,0 C 16,7 C 16,1 C 77 % 1015,5 hPa 0,0 l/m 0 min 0 min 0 W/m 0,0 km/h (0 Bft) 95,74 %
23.09.2019 19:42 18,0 C 16,7 C 16,1 C 77 % 1015,6 hPa 0,0 l/m 0 min 0 min 0 W/m 0,0 km/h (0 Bft) 93,62 %
23.09.2019 19:44 18,0 C 16,7 C 16,1 C 77 % 1015,6 hPa 0,0 l/m 0 min 0 min 0 W/m 0,0 km/h (0 Bft) 95,65 %
23.09.2019 19:46 17,9 C 16,7 C 16,1 C 77 % 1015,6 hPa 0,0 l/m 0 min 0 min 0 W/m 0,0 km/h (0 Bft) 95,74 %
23.09.2019 19:48 17,9 C 16,7 C 16,1 C 77 % 1015,6 hPa 0,0 l/m 0 min 0 min 0 W/m 0,0 km/h (0 Bft) 93,62 %
23.09.2019 19:50 17,9 C 16,7 C 16,1 C 77 % 1015,6 hPa 0,0 l/m 0 min 0 min 0 W/m 0,0 km/h (0 Bft) 93,62 %
23.09.2019 19:52 17,9 C 16,7 C 16,1 C 77 % 1015,6 hPa 0,0 l/m 0 min 0 min 0 W/m 0,0 km/h (0 Bft) 97,87 %
23.09.2019 19:53 17,8 C 16,7 C 16,1 C 77 % 1015,6 hPa 0,0 l/m 0 min 0 min 0 W/m 0,0 km/h (0 Bft) 100,00 %
23.09.2019 19:56 17,8 C 16,7 C 16,1 C 77 % 1015,6 hPa 0,0 l/m 0 min 0 min 0 W/m 0,0 km/h (0 Bft) 100,00 %
23.09.2019 19:58 17,8 C 16,7 C 16,1 C 77 % 1015,6 hPa 0,0 l/m 0 min 0 min 0 W/m 0,0 km/h (0 Bft) 95,74 %
23.09.2019 20:00 17,8 C 16,7 C 16,1 C 77 % 1015,6 hPa 0,0 l/m 0 min 0 min 0 W/m 0,0 km/h (0 Bft) 95,74 %
23.09.2019 20:02 17,8 C 16,7 C 16,1 C 77 % 1015,6 hPa 0,0 l/m 0 min 0 min 0 W/m 0,0 km/h (0 Bft) 97,87 %
23.09.2019 20:04 17,7 C 16,7 C 16,1 C 77 % 1015,7 hPa 0,0 l/m 0 min 0 min 0 W/m 0,0 km/h (0 Bft) 100,00 %
23.09.2019 20:06 17,7 C 16,7 C 16,1 C 77 % 1015,7 hPa 0,0 l/m 0 min 0 min 0 W/m 0,0 km/h (0 Bft) 97,83 %
23.09.2019 20:08 17,7 C 16,7 C 16,1 C 77 % 1015,7 hPa 0,0 l/m 0 min 0 min 0 W/m 0,0 km/h (0 Bft) 97,87 %
23.09.2019 20:10 17,7 C 16,7 C 16,1 C 77 % 1015,7 hPa 0,0 l/m 0 min 0 min 0 W/m 0,0 km/h (0 Bft) 100,00 %
23.09.2019 20:12 17,7 C 16,7 C 16,1 C 77 % 1015,7 hPa 0,0 l/m 0 min 0 min 0 W/m 0,0 km/h (0 Bft) 100,00 %
23.09.2019 20:14 17,7 C 16,7 C 15,6 C 78 % 1015,7 hPa 0,0 l/m 0 min 0 min 0 W/m 0,0 km/h (0 Bft) 100,00 %
23.09.2019 20:16 17,6 C 16,1 C 15,6 C 78 % 1015,7 hPa 0,0 l/m 0 min 0 min 0 W/m 0,0 km/h (0 Bft) 100,00 %
23.09.2019 20:18 17,6 C 16,1 C 15,6 C 78 % 1015,7 hPa 0,0 l/m 0 min 0 min 0 W/m 0,0 km/h (0 Bft) 100,00 %
23.09.2019 20:20 17,6 C 16,1 C 15,6 C 77 % 1015,7 hPa 0,0 l/m 0 min 0 min 0 W/m 0,0 km/h (0 Bft) 100,00 %
23.09.2019 20:22 17,6 C 16,1 C 15,6 C 77 % 1015,8 hPa 0,0 l/m 0 min 0 min 0 W/m 0,0 km/h (0 Bft) 100,00 %
23.09.2019 20:24 17,6 C 16,7 C 15,6 C 77 % 1015,8 hPa 0,0 l/m 0 min 0 min 0 W/m 0,0 km/h (0 Bft) 97,87 %
23.09.2019 20:26 17,6 C 16,1 C 15,6 C 77 % 1015,8 hPa 0,0 l/m 0 min 0 min 0 W/m 0,0 km/h (0 Bft) 100,00 %
23.09.2019 20:28 17,6 C 16,1 C 15,6 C 77 % 1015,8 hPa 0,0 l/m 0 min 0 min 0 W/m 0,0 km/h (0 Bft) 100,00 %
23.09.2019 20:30 17,5 C 16,1 C 15,6 C 77 % 1015,7 hPa 0,0 l/m 0 min 0 min 0 W/m 0,0 km/h (0 Bft) 100,00 %
23.09.2019 20:32 17,5 C 16,1 C 15,6 C 77 % 1015,7 hPa 0,0 l/m 0 min 0 min 0 W/m 0,0 km/h (0 Bft) 100,00 %
23.09.2019 20:34 17,5 C 16,1 C 15,6 C 77 % 1015,7 hPa 0,0 l/m 0 min 0 min 0 W/m 0,0 km/h (0 Bft) 100,00 %
23.09.2019 20:36 17,5 C 16,1 C 15,6 C 78 % 1015,8 hPa 0,0 l/m 0 min 0 min 0 W/m 0,0 km/h (0 Bft) 100,00 %
23.09.2019 20:38 17,4 C 16,1 C 15,6 C 78 % 1015,9 hPa 0,0 l/m 0 min 0 min 0 W/m 0,0 km/h (0 Bft) 100,00 %
23.09.2019 20:40 17,4 C 16,1 C 15,6 C 78 % 1015,8 hPa 0,0 l/m 0 min 0 min 0 W/m 0,0 km/h (0 Bft) 100,00 %
23.09.2019 20:42 17,4 C 16,1 C 15,6 C 78 % 1015,8 hPa 0,0 l/m 0 min 0 min 0 W/m 0,0 km/h (0 Bft) 100,00 %
23.09.2019 20:44 17,4 C 16,1 C 15,6 C 78 % 1015,8 hPa 0,0 l/m 0 min 0 min 0 W/m 0,0 km/h (0 Bft) 97,87 %
23.09.2019 20:46 17,4 C 16,1 C 15,6 C 78 % 1015,7 hPa 0,0 l/m 0 min 0 min 0 W/m 0,0 km/h (0 Bft) 100,00 %
23.09.2019 20:48 17,4 C 16,1 C 15,6 C 79 % 1015,7 hPa 0,0 l/m 0 min 0 min 0 W/m 0,0 km/h (0 Bft) 95,74 %
23.09.2019 20:50 17,4 C 16,1 C 15,6 C 79 % 1015,7 hPa 0,0 l/m 0 min 0 min 0 W/m 0,0 km/h (0 Bft) 100,00 %
23.09.2019 20:52 17,4 C 16,1 C 15,6 C 79 % 1015,7 hPa 0,0 l/m 0 min 0 min 0 W/m 0,0 km/h (0 Bft) 100,00 %
23.09.2019 20:54 17,3 C 16,1 C 15,6 C 79 % 1015,8 hPa 0,0 l/m 0 min 0 min 0 W/m 0,0 km/h (0 Bft) 100,00 %
23.09.2019 20:56 17,3 C 16,1 C 15,6 C 79 % 1015,9 hPa 0,0 l/m 0 min 0 min 0 W/m 0,0 km/h (0 Bft) 100,00 %
23.09.2019 20:58 17,3 C 16,1 C 15,6 C 79 % 1015,8 hPa 0,0 l/m 0 min 0 min 0 W/m 0,0 km/h (0 Bft) 100,00 %
23.09.2019 21:00 17,3 C 16,1 C 15,6 C 79 % 1015,8 hPa 0,0 l/m 0 min 0 min 0 W/m 0,0 km/h (0 Bft) 100,00 %
23.09.2019 21:02 17,3 C 16,1 C 15,6 C 79 % 1015,8 hPa 0,0 l/m 0 min 0 min 0 W/m 0,0 km/h (0 Bft) 100,00 %
23.09.2019 21:04 17,3 C 16,1 C 15,6 C 79 % 1015,8 hPa 0,0 l/m 0 min 0 min 0 W/m 0,0 km/h (0 Bft) 100,00 %
23.09.2019 21:06 17,3 C 16,1 C 15,6 C 79 % 1015,8 hPa 0,0 l/m 0 min 0 min 0 W/m 0,0 km/h (0 Bft) 100,00 %
23.09.2019 21:08 17,2 C 16,1 C 15,6 C 79 % 1015,9 hPa 0,0 l/m 0 min 0 min 0 W/m 0,0 km/h (0 Bft) 100,00 %
23.09.2019 21:10 17,2 C 16,1 C 15,6 C 79 % 1015,8 hPa 0,0 l/m 0 min 0 min 0 W/m 0,0 km/h (0 Bft) 97,87 %
23.09.2019 21:12 17,2 C 16,1 C 15,6 C 79 % 1015,9 hPa 0,0 l/m 0 min 0 min 0 W/m 0,0 km/h (0 Bft) 97,87 %
23.09.2019 21:14 17,2 C 16,1 C 15,6 C 79 % 1015,9 hPa 0,0 l/m 0 min 0 min 0 W/m 0,0 km/h (0 Bft) 100,00 %
23.09.2019 21:16 17,2 C 16,1 C 15,6 C 79 % 1015,8 hPa 0,0 l/m 0 min 0 min 0 W/m 0,0 km/h (0 Bft) 100,00 %
23.09.2019 21:18 17,2 C 16,1 C 15,6 C 79 % 1015,8 hPa 0,0 l/m 0 min 0 min 0 W/m 0,0 km/h (0 Bft) 100,00 %
23.09.2019 21:20 17,1 C 16,1 C 15,6 C 79 % 1015,8 hPa 0,0 l/m 0 min 0 min 0 W/m 0,0 km/h (0 Bft) 100,00 %
23.09.2019 21:22 17,1 C 15,6 C 15,6 C 79 % 1015,8 hPa 0,0 l/m 0 min 0 min 0 W/m 0,0 km/h (0 Bft) 100,00 %
23.09.2019 21:24 17,1 C 15,6 C 15,0 C 79 % 1015,8 hPa 0,0 l/m 0 min 0 min 0 W/m 0,0 km/h (0 Bft) 100,00 %
23.09.2019 21:26 17,1 C 15,6 C 15,0 C 79 % 1015,8 hPa 0,0 l/m 0 min 0 min 0 W/m 0,0 km/h (0 Bft) 100,00 %
23.09.2019 21:28 17,1 C 15,6 C 15,0 C 80 % 1015,9 hPa 0,0 l/m 0 min 0 min 0 W/m 0,0 km/h (0 Bft) 97,83 %
23.09.2019 21:30 17,0 C 15,6 C 15,0 C 80 % 1015,9 hPa 0,0 l/m 0 min 0 min 0 W/m 0,0 km/h (0 Bft) 100,00 %
23.09.2019 21:32 17,0 C 15,6 C 15,0 C 80 % 1015,9 hPa 0,0 l/m 0 min 0 min 0 W/m 0,0 km/h (0 Bft) 100,00 %
23.09.2019 21:34 17,0 C 15,6 C 15,0 C 80 % 1015,8 hPa 0,0 l/m 0 min 0 min 0 W/m 0,0 km/h (0 Bft) 100,00 %
23.09.2019 21:36 17,0 C 15,6 C 15,0 C 80 % 1015,8 hPa 0,0 l/m 0 min 0 min 0 W/m 0,0 km/h (0 Bft) 100,00 %
23.09.2019 21:38 16,9 C 15,6 C 15,0 C 80 % 1015,8 hPa 0,0 l/m 0 min 0 min 0 W/m 0,0 km/h (0 Bft) 97,87 %
23.09.2019 21:40 16,9 C 15,6 C 15,0 C 80 % 1015,8 hPa 0,0 l/m 0 min 0 min 0 W/m 0,0 km/h (0 Bft) 95,65 %
23.09.2019 21:42 16,9 C 15,6 C 15,0 C 80 % 1015,8 hPa 0,0 l/m 0 min 0 min 0 W/m 0,0 km/h (0 Bft) 97,87 %
23.09.2019 21:44 16,9 C 15,6 C 15,0 C 80 % 1015,8 hPa 0,0 l/m 0 min 0 min 0 W/m 0,0 km/h (0 Bft) 95,74 %
23.09.2019 21:46 16,9 C 15,6 C 15,0 C 80 % 1015,9 hPa 0,0 l/m 0 min 0 min 0 W/m 0,0 km/h (0 Bft) 95,74 %
23.09.2019 21:48 16,9 C 15,6 C 15,0 C 80 % 1015,9 hPa 0,0 l/m 0 min 0 min 0 W/m 0,0 km/h (0 Bft) 97,87 %
23.09.2019 21:50 16,8 C 15,6 C 15,0 C 80 % 1015,8 hPa 0,0 l/m 0 min 0 min 0 W/m 0,0 km/h (0 Bft) 93,62 %
23.09.2019 21:52 16,8 C 15,6 C 15,0 C 81 % 1015,8 hPa 0,0 l/m 0 min 0 min 0 W/m 0,0 km/h (0 Bft) 95,65 %
23.09.2019 21:54 16,8 C 15,6 C 15,0 C 81 % 1015,8 hPa 0,0 l/m 0 min 0 min 0 W/m 0,0 km/h (0 Bft) 95,74 %
23.09.2019 21:56 16,8 C 15,6 C 15,0 C 81 % 1015,8 hPa 0,0 l/m 0 min 0 min 0 W/m 0,0 km/h (0 Bft) 93,62 %
23.09.2019 21:58 16,8 C 15,6 C 15,0 C 81 % 1015,8 hPa 0,0 l/m 0 min 0 min 0 W/m 0,0 km/h (0 Bft) 95,74 %
23.09.2019 22:00 16,8 C 15,6 C 15,0 C 81 % 1015,8 hPa 0,0 l/m 0 min 0 min 0 W/m 0,0 km/h (0 Bft) 95,74 %
23.09.2019 22:02 16,7 C 15,6 C 15,0 C 81 % 1015,8 hPa 0,0 l/m 0 min 0 min 0 W/m 0,0 km/h (0 Bft) 93,62 %
23.09.2019 22:04 16,7 C 15,6 C 15,0 C 81 % 1015,8 hPa 0,0 l/m 0 min 0 min 0 W/m 0,0 km/h (0 Bft) 95,65 %
23.09.2019 22:06 16,7 C 15,6 C 15,0 C 81 % 1015,8 hPa 0,0 l/m 0 min 0 min 0 W/m 0,0 km/h (0 Bft) 95,74 %
23.09.2019 22:08 16,7 C 15,6 C 15,0 C 81 % 1015,8 hPa 0,0 l/m 0 min 0 min 0 W/m 0,0 km/h (0 Bft) 93,75 %
23.09.2019 22:10 16,7 C 15,6 C 15,0 C 81 % 1015,8 hPa 0,0 l/m 0 min 0 min 0 W/m 0,0 km/h (0 Bft) 95,74 %
23.09.2019 22:12 16,7 C 15,6 C 15,0 C 82 % 1015,8 hPa 0,0 l/m 0 min 0 min 0 W/m 0,0 km/h (0 Bft) 95,65 %
23.09.2019 22:14 16,6 C 15,6 C 15,0 C 82 % 1015,8 hPa 0,0 l/m 0 min 0 min 0 W/m 0,0 km/h (0 Bft) 95,74 %
23.09.2019 22:16 16,6 C 15,6 C 15,0 C 82 % 1015,8 hPa 0,0 l/m 0 min 0 min 0 W/m 0,0 km/h (0 Bft) 95,74 %
23.09.2019 22:18 16,6 C 15,0 C 15,0 C 82 % 1015,9 hPa 0,0 l/m 0 min 0 min 0 W/m 0,0 km/h (0 Bft) 95,74 %
23.09.2019 22:20 16,6 C 15,0 C 15,0 C 82 % 1015,9 hPa 0,0 l/m 0 min 0 min 0 W/m 0,0 km/h (0 Bft) 95,74 %
23.09.2019 22:22 16,6 C 15,0 C 15,0 C 82 % 1015,9 hPa 0,0 l/m 0 min 0 min 0 W/m 0,0 km/h (0 Bft) 95,74 %
23.09.2019 22:24 16,6 C 15,0 C 15,0 C 82 % 1015,8 hPa 0,0 l/m 0 min 0 min 0 W/m 0,0 km/h (0 Bft) 95,65 %
23.09.2019 22:26 16,5 C 15,6 C 15,0 C 82 % 1015,8 hPa 0,0 l/m 0 min 0 min 0 W/m 0,0 km/h (0 Bft) 97,87 %
23.09.2019 22:28 16,5 C 15,0 C 15,0 C 83 % 1015,8 hPa 0,0 l/m 0 min 0 min 0 W/m 0,0 km/h (0 Bft) 97,87 %
23.09.2019 22:30 16,5 C 15,0 C 15,0 C 83 % 1015,8 hPa 0,0 l/m 0 min 0 min 0 W/m 0,0 km/h (0 Bft) 95,74 %
23.09.2019 22:32 16,5 C 15,0 C 15,0 C 83 % 1015,8 hPa 0,0 l/m 0 min 0 min 0 W/m 0,0 km/h (0 Bft) 93,62 %
23.09.2019 22:34 16,4 C 15,6 C 15,0 C 83 % 1015,8 hPa 0,0 l/m 0 min 0 min 0 W/m 3,2 km/h (1 Bft) 95,74 %
23.09.2019 22:36 16,4 C 15,0 C 15,0 C 83 % 1015,9 hPa 0,0 l/m 0 min 0 min 0 W/m 3,2 km/h (1 Bft) 95,65 %
23.09.2019 22:38 16,4 C 15,0 C 15,0 C 83 % 1015,8 hPa 0,0 l/m 0 min 0 min 0 W/m 3,2 km/h (1 Bft) 95,74 %
23.09.2019 22:40 16,4 C 15,0 C 15,0 C 84 % 1015,8 hPa 0,0 l/m 0 min 0 min 0 W/m 6,4 km/h (2 Bft) 97,87 %
23.09.2019 22:42 16,4 C 15,0 C 15,0 C 84 % 1015,9 hPa 0,0 l/m 0 min 0 min 0 W/m 0,0 km/h (0 Bft) 95,74 %
23.09.2019 22:44 16,4 C 15,0 C 15,0 C 84 % 1015,9 hPa 0,0 l/m 0 min 0 min 0 W/m 3,2 km/h (1 Bft) 97,87 %
23.09.2019 22:46 16,4 C 15,0 C 15,0 C 84 % 1015,9 hPa 0,0 l/m 0 min 0 min 0 W/m 3,2 km/h (1 Bft) 97,87 %
23.09.2019 22:48 16,3 C 15,0 C 15,0 C 84 % 1015,8 hPa 0,0 l/m 0 min 0 min 0 W/m 3,2 km/h (1 Bft) 95,65 %
23.09.2019 22:50 16,3 C 15,0 C 15,0 C 84 % 1015,9 hPa 0,0 l/m 0 min 0 min 0 W/m 3,2 km/h (1 Bft) 97,87 %
23.09.2019 22:52 16,3 C 15,0 C 15,0 C 84 % 1015,8 hPa 0,0 l/m 0 min 0 min 0 W/m 0,0 km/h (0 Bft) 95,74 %
23.09.2019 22:54 16,3 C 15,0 C 15,0 C 84 % 1015,9 hPa 0,0 l/m 0 min 0 min 0 W/m 0,0 km/h (0 Bft) 97,87 %
23.09.2019 22:56 16,3 C 15,0 C 14,4 C 84 % 1015,8 hPa 0,0 l/m 0 min 0 min 0 W/m 3,2 km/h (1 Bft) 97,87 %
23.09.2019 22:58 16,3 C 15,0 C 14,4 C 84 % 1015,8 hPa 0,0 l/m 0 min 0 min 0 W/m 0,0 km/h (0 Bft) 97,87 %
23.09.2019 23:00 16,3 C 15,0 C 14,4 C 84 % 1015,8 hPa 0,0 l/m 0 min 0 min 0 W/m 3,2 km/h (1 Bft) 100,00 %
23.09.2019 23:02 16,2 C 15,0 C 14,4 C 85 % 1015,8 hPa 0,0 l/m 0 min 0 min 0 W/m 9,7 km/h (2 Bft) 97,87 %
23.09.2019 23:04 16,2 C 15,0 C 15,0 C 85 % 1015,8 hPa 0,0 l/m 0 min 0 min 0 W/m 9,7 km/h (2 Bft) 97,87 %
23.09.2019 23:06 16,2 C 15,0 C 15,0 C 85 % 1015,8 hPa 0,0 l/m 0 min 0 min 0 W/m 3,2 km/h (1 Bft) 93,62 %
23.09.2019 23:08 16,2 C 15,0 C 15,0 C 85 % 1015,8 hPa 0,0 l/m 0 min 0 min 0 W/m 3,2 km/h (1 Bft) 97,87 %
23.09.2019 23:10 16,2 C 15,0 C 14,4 C 85 % 1015,8 hPa 0,0 l/m 0 min 0 min 0 W/m 9,7 km/h (2 Bft) 97,83 %
23.09.2019 23:12 16,2 C 15,0 C 15,0 C 85 % 1015,9 hPa 0,0 l/m 0 min 0 min 0 W/m 3,2 km/h (1 Bft) 97,87 %
23.09.2019 23:14 16,2 C 15,0 C 15,0 C 85 % 1015,8 hPa 0,0 l/m 0 min 0 min 0 W/m 0,0 km/h (0 Bft) 97,87 %
23.09.2019 23:16 16,1 C 15,0 C 15,0 C 85 % 1015,9 hPa 0,0 l/m 0 min 0 min 0 W/m 3,2 km/h (1 Bft) 95,74 %
23.09.2019 23:18 16,1 C 15,0 C 15,0 C 85 % 1015,9 hPa 0,0 l/m 0 min 0 min 0 W/m 3,2 km/h (1 Bft) 97,87 %
23.09.2019 23:20 16,1 C 15,0 C 14,4 C 85 % 1015,9 hPa 0,0 l/m 0 min 0 min 0 W/m 3,2 km/h (1 Bft) 95,74 %
23.09.2019 23:22 16,1 C 15,0 C 14,4 C 85 % 1015,9 hPa 0,0 l/m 0 min 0 min 0 W/m 3,2 km/h (1 Bft) 97,83 %
23.09.2019 23:24 16,1 C 15,0 C 14,4 C 85 % 1015,9 hPa 0,0 l/m 0 min 0 min 0 W/m 6,4 km/h (2 Bft) 97,87 %
23.09.2019 23:26 16,1 C 15,0 C 14,4 C 85 % 1015,8 hPa 0,0 l/m 0 min 0 min 0 W/m 6,4 km/h (2 Bft) 97,87 %
23.09.2019 23:28 16,1 C 15,0 C 14,4 C 85 % 1015,9 hPa 0,0 l/m 0 min 0 min 0 W/m 3,2 km/h (1 Bft) 97,87 %
23.09.2019 23:30 16,1 C 15,0 C 14,4 C 85 % 1015,9 hPa 0,0 l/m 0 min 0 min 0 W/m 0,0 km/h (0 Bft) 95,74 %
23.09.2019 23:32 16,0 C 15,0 C 14,4 C 85 % 1015,9 hPa 0,0 l/m 0 min 0 min 0 W/m 3,2 km/h (1 Bft) 97,87 %
23.09.2019 23:34 16,0 C 15,0 C 14,4 C 86 % 1015,9 hPa 0,0 l/m 0 min 0 min 0 W/m 3,2 km/h (1 Bft) 100,00 %
23.09.2019 23:36 16,0 C 15,0 C 14,4 C 86 % 1015,8 hPa 0,0 l/m 0 min 0 min 0 W/m 3,2 km/h (1 Bft) 100,00 %
23.09.2019 23:38 16,0 C 15,0 C 14,4 C 86 % 1015,8 hPa 0,0 l/m 0 min 0 min 0 W/m 0,0 km/h (0 Bft) 100,00 %
23.09.2019 23:40 15,9 C 14,4 C 14,4 C 86 % 1015,8 hPa 0,0 l/m 0 min 0 min 0 W/m 0,0 km/h (0 Bft) 100,00 %
23.09.2019 23:42 15,9 C 14,4 C 14,4 C 86 % 1015,7 hPa 0,0 l/m 0 min 0 min 0 W/m 0,0 km/h (0 Bft) 97,87 %
23.09.2019 23:44 15,9 C 14,4 C 13,9 C 86 % 1015,8 hPa 0,0 l/m 0 min 0 min 0 W/m 0,0 km/h (0 Bft) 100,00 %
23.09.2019 23:46 15,9 C 14,4 C 13,9 C 86 % 1015,8 hPa 0,0 l/m 0 min 0 min 0 W/m 0,0 km/h (0 Bft) 100,00 %
23.09.2019 23:48 15,9 C 14,4 C 13,9 C 86 % 1015,8 hPa 0,0 l/m 0 min 0 min 0 W/m 0,0 km/h (0 Bft) 100,00 %
23.09.2019 23:50 15,9 C 14,4 C 13,9 C 86 % 1015,7 hPa 0,0 l/m 0 min 0 min 0 W/m 0,0 km/h (0 Bft) 100,00 %
23.09.2019 23:52 15,9 C 14,4 C 13,9 C 86 % 1015,7 hPa 0,0 l/m 0 min 0 min 0 W/m 3,2 km/h (1 Bft) 97,87 %
23.09.2019 23:54 15,8 C 14,4 C 13,9 C 86 % 1015,7 hPa 0,0 l/m 0 min 0 min 0 W/m 3,2 km/h (1 Bft) 100,00 %
23.09.2019 23:56 15,8 C 14,4 C 13,9 C 86 % 1015,8 hPa 0,0 l/m 0 min 0 min 0 W/m 0,0 km/h (0 Bft) 100,00 %
23.09.2019 23:58 15,8 C 14,4 C 13,9 C 86 % 1015,7 hPa 0,0 l/m 0 min 0 min 0 W/m 0,0 km/h (0 Bft) 97,83 %
_ Min-Zeit 08:08 05:24 07:14 16:26 00:00 - - - - 00:54 16:36
Minimum _ 14,8 C 13,9 C 13,3 C 66 % 1010,1 hPa - - - - 0,0 km/h (0 Bft) 89,13 %
_ Max-Zeit 16:30 14:32 14:32 11:00 20:38 00:10 12:16 00:08 14:16 12:34 00:54
Maximum _ 21,5 C 26,1 C 20,0 C 99 % 1015,9 hPa 0,2 l/m 2 min 4 min 834 W/m 25,7 km/h
S-SO (4 Bft)
100,00 %
Durchschnitt _ 17,0 C 16,7 C 15,6 C 88 % 1014,0 hPa #9,0 l/m #2:48 h #7:06 h 187 W/m 5,0 km/h (1 Bft) 97,49 %
© 2019 W. Hausmann